KC5DAQ-23 Weather Reports


time (UTC)temp
C
wind
direction
speed
KPH
gust
KPH
rain 1hr
cm
rain 24hr
cm
rain mn
cm
humidity
%
barometer
mb
20240222102802 19 200 8.0 19.3 0.00 0.00 0.00 85 1012.9
20240222102702 19 193 9.7 19.3 0.00 0.00 0.00 85 1012.9
20240222102603 19 195 9.7 19.3 0.00 0.00 0.00 85 1012.8
20240222102503 19 206 9.7 19.3 0.00 0.00 0.00 85 1012.8
20240222102401 19 179 9.7 19.3 0.00 0.00 0.00 85 1012.9
20240222102305 19 200 11.3 20.9 0.00 0.00 0.00 85 1012.8
20240222102202 19 192 11.3 20.9 0.00 0.00 0.00 85 1012.8
20240222102102 19 180 11.3 20.9 0.00 0.00 0.00 85 1012.8
20240222102002 19 180 12.9 20.9 0.00 0.00 0.00 85 1012.8
20240222101902 19 204 12.9 20.9 0.00 0.00 0.00 85 1012.9
20240222101802 19 210 11.3 20.9 0.00 0.00 0.00 85 1012.8
20240222101702 19 193 11.3 24.1 0.00 0.00 0.00 85 1012.9
20240222101603 19 188 12.9 24.1 0.00 0.00 0.00 85 1012.9
20240222101502 19 193 14.5 24.1 0.00 0.00 0.00 85 1012.8
20240222101401 19 212 14.5 24.1 0.00 0.00 0.00 85 1012.9
20240222101301 19 200 12.9 24.1 0.00 0.00 0.00 85 1013.0
20240222101203 19 209 14.5 24.1 0.00 0.00 0.00 85 1012.8
20240222101102 19 202 12.9 24.1 0.00 0.00 0.00 85 1012.9
20240222101002 19 179 12.9 24.1 0.00 0.00 0.00 85 1012.9
20240222100905 19 169 14.5 24.1 0.00 0.00 0.00 85 1012.9
20240222100802 19 190 14.5 24.1 0.00 0.00 0.00 85 1013.0
20240222100702 19 182 12.9 20.9 0.00 0.00 0.00 85 1013.0
20240222100604 19 182 11.3 20.9 0.00 0.00 0.00 85 1012.9
20240222100503 19 190 11.3 19.3 0.00 0.00 0.00 85 1013.0
20240222100401 19 182 11.3 19.3 0.00 0.00 0.00 85 1013.0
20240222100302 19 189 12.9 19.3 0.00 0.00 0.00 85 1013.1
20240222100203 19 207 12.9 20.9 0.00 0.00 0.00 85 1013.1
20240222100102 19 165 11.3 20.9 0.00 0.00 0.00 85 1013.1
20240222100003 19 182 9.7 20.9 0.00 0.00 0.00 85 1013.0
20240222095903 19 196 9.7 22.5 0.00 0.00 0.00 85 1013.1
20240222095802 19 182 9.7 22.5 0.00 0.00 0.00 85 1013.1
20240222095702 19 200 11.3 22.5 0.00 0.00 0.00 84 1013.1
20240222095602 19 203 11.3 22.5 0.00 0.00 0.00 84 1013.2
20240222095504 19 182 11.3 22.5 0.00 0.00 0.00 84 1013.1
20240222095403 19 186 11.3 22.5 0.00 0.00 0.00 84 1013.1
20240222095305 19 188 12.9 22.5 0.00 0.00 0.00 84 1013.1
20240222095203 19 195 12.9 22.5 0.00 0.00 0.00 84 1013.1
20240222095102 19 200 16.1 25.7 0.00 0.00 0.00 84 1013.1
20240222095002 19 188 16.1 25.7 0.00 0.00 0.00 84 1013.2
20240222094903 19 179 14.5 25.7 0.00 0.00 0.00 84 1013.1
20240222094803 19 221 12.9 25.7 0.00 0.00 0.00 84 1013.1
20240222094702 19 212 14.5 25.7 0.00 0.00 0.00 84 1013.1
20240222094602 19 199 14.5 25.7 0.00 0.00 0.00 84 1013.2
20240222094501 19 197 12.9 25.7 0.00 0.00 0.00 84 1013.2
20240222094403 19 193 12.9 25.7 0.00 0.00 0.00 84 1013.2
20240222094302 19 195 16.1 25.7 0.00 0.00 0.00 84 1013.3
20240222094203 19 193 16.1 25.7 0.00 0.00 0.00 84 1013.2
20240222094102 19 179 11.3 24.1 0.00 0.00 0.00 84 1013.1
20240222094003 19 193 9.7 24.1 0.00 0.00 0.00 84 1013.1
20240222093903 19 203 11.3 25.7 0.00 0.00 0.00 84 1013.1
20240222093802 19 206 12.9 25.7 0.00 0.00 0.00 84 1013.1
20240222093702 19 195 14.5 25.7 0.00 0.00 0.00 84 1013.1
20240222093602 19 180 14.5 25.7 0.00 0.00 0.00 84 1013.1
20240222093503 19 172 16.1 25.7 0.00 0.00 0.00 84 1013.2
20240222093402 19 183 14.5 25.7 0.00 0.00 0.00 84 1013.2
20240222093302 19 179 12.9 29.0 0.00 0.00 0.00 84 1013.1
20240222093203 19 182 16.1 29.0 0.00 0.00 0.00 84 1013.3
20240222093103 19 192 17.7 29.0 0.00 0.00 0.00 84 1013.3
20240222093002 19 190 17.7 29.0 0.00 0.00 0.00 84 1013.4
20240222092903 19 206 17.7 29.0 0.00 0.00 0.00 84 1013.4
20240222092803 19 189 14.5 29.0 0.00 0.00 0.00 84 1013.4
20240222092702 19 199 17.7 30.6 0.00 0.00 0.00 84 1013.5
20240222092603 19 182 17.7 32.2 0.00 0.00 0.00 84 1013.4
20240222092504 19 178 19.3 32.2 0.00 0.00 0.00 84 1013.4
20240222092402 19 190 20.9 33.8 0.00 0.00 0.00 83 1013.3
20240222092305 19 189 16.1 33.8 0.00 0.00 0.00 83 1013.4
20240222092202 19 180 16.1 33.8 0.00 0.00 0.00 83 1013.3
20240222092104 19 188 14.5 33.8 0.00 0.00 0.00 83 1013.4
20240222092003 19 207 12.9 33.8 0.00 0.00 0.00 83 1013.3
20240222091902 19 188 16.1 33.8 0.00 0.00 0.00 83 1013.4
20240222091804 19 197 20.9 33.8 0.00 0.00 0.00 83 1013.4
20240222091702 19 178 20.9 33.8 0.00 0.00 0.00 83 1013.4
20240222091601 19 158 20.9 33.8 0.00 0.00 0.00 83 1013.3
20240222091503 19 180 20.9 33.8 0.00 0.00 0.00 83 1013.4
20240222091402 19 185 16.1 33.8 0.00 0.00 0.00 83 1013.4
20240222091302 19 186 12.9 33.8 0.00 0.00 0.00 83 1013.5
20240222091202 19 197 17.7 33.8 0.00 0.00 0.00 83 1013.5
20240222091103 19 189 22.5 33.8 0.00 0.00 0.00 83 1013.4
20240222091002 19 169 19.3 33.8 0.00 0.00 0.00 83 1013.5
20240222090901 19 161 17.7 29.0 0.00 0.00 0.00 83 1013.5
20240222090803 19 193 20.9 29.0 0.00 0.00 0.00 83 1013.5
20240222090703 19 190 17.7 29.0 0.00 0.00 0.00 83 1013.5
20240222090602 19 192 14.5 27.4 0.00 0.00 0.00 83 1013.7
20240222090502 19 183 16.1 27.4 0.00 0.00 0.00 83 1013.8
20240222090403 19 206 17.7 29.0 0.00 0.00 0.00 83 1013.8
20240222090302 19 186 16.1 29.0 0.00 0.00 0.00 83 1013.9
20240222090201 19 182 14.5 29.0 0.00 0.00 0.00 83 1013.8
20240222090103 19 182 17.7 29.0 0.00 0.00 0.00 83 1013.9
20240222090005 19 204 19.3 29.0 0.00 0.00 0.00 83 1013.9
20240222085902 19 199 17.7 29.0 0.00 0.00 0.00 83 1013.8
20240222085802 19 179 17.7 29.0 0.00 0.00 0.00 83 1013.9
20240222085703 19 193 17.7 29.0 0.00 0.00 0.00 83 1013.8
20240222085603 19 175 17.7 29.0 0.00 0.00 0.00 83 1013.8
20240222085502 19 182 17.7 29.0 0.00 0.00 0.00 83 1013.8
20240222085402 19 192 12.9 27.4 0.00 0.00 0.00 83 1013.8
20240222085305 19 186 14.5 27.4 0.00 0.00 0.00 83 1013.9
20240222085202 19 202 19.3 27.4 0.00 0.00 0.00 83 1013.9
20240222085104 19 185 19.3 27.4 0.00 0.00 0.00 83 1013.9
20240222085003 19 175 17.7 27.4 0.00 0.00 0.00 83 1013.9
20240222084902 19 158 16.1 27.4 0.00 0.00 0.00 83 1013.8
20240222084802 19 195 14.5 22.5 0.00 0.00 0.00 83 1014.0
20240222084703 19 188 14.5 22.5 0.00 0.00 0.00 83 1013.9
20240222084602 19 169 16.1 22.5 0.00 0.00 0.00 83 1014.0
20240222084504 19 169 16.1 22.5 0.00 0.00 0.00 83 1014.1
20240222084402 19 173 16.1 22.5 0.00 0.00 0.00 83 1014.1
20240222084302 19 199 16.1 22.5 0.00 0.00 0.00 82 1014.1
20240222084203 19 188 14.5 22.5 0.00 0.00 0.00 82 1014.1
20240222084103 19 183 14.5 22.5 0.00 0.00 0.00 82 1014.2
20240222084003 19 185 14.5 22.5 0.00 0.00 0.00 82 1014.2
20240222083901 19 186 12.9 22.5 0.00 0.00 0.00 82 1014.2
20240222083802 19 178 12.9 22.5 0.00 0.00 0.00 82 1014.2
20240222083704 19 197 14.5 22.5 0.00 0.00 0.00 82 1014.2
20240222083603 19 186 16.1 29.0 0.00 0.00 0.00 82 1014.2
20240222083502 19 182 16.1 29.0 0.00 0.00 0.00 82 1014.2
20240222083401 19 199 16.1 29.0 0.00 0.00 0.00 82 1014.2
20240222083302 19 189 17.7 29.0 0.00 0.00 0.00 82 1014.3
20240222083202 19 195 16.1 29.0 0.00 0.00 0.00 82 1014.4
20240222083102 19 207 12.9 29.0 0.00 0.00 0.00 82 1014.3
20240222083004 19 169 12.9 32.2 0.00 0.00 0.00 82 1014.3
20240222082902 19 197 14.5 32.2 0.00 0.00 0.00 82 1014.4
20240222082802 19 161 17.7 32.2 0.00 0.00 0.00 82 1014.4
20240222082704 19 182 17.7 32.2 0.00 0.00 0.00 82 1014.3
20240222082603 19 189 17.7 32.2 0.00 0.00 0.00 82 1014.4
20240222082502 19 185 20.9 32.2 0.00 0.00 0.00 82 1014.4
20240222082403 19 195 17.7 32.2 0.00 0.00 0.00 82 1014.4
20240222082305 19 200 16.1 32.2 0.00 0.00 0.00 82 1014.4
20240222082202 19 179 17.7 32.2 0.00 0.00 0.00 82 1014.4
20240222082102 19 185 14.5 32.2 0.00 0.00 0.00 82 1014.5
20240222082003 19 209 12.9 27.4 0.00 0.00 0.00 82 1014.5
20240222081902 19 179 14.5 27.4 0.00 0.00 0.00 82 1014.4
20240222081801 19 186 17.7 27.4 0.00 0.00 0.00 82 1014.4
20240222081702 19 203 19.3 27.4 0.00 0.00 0.00 82 1014.4
20240222081602 19 176 17.7 27.4 0.00 0.00 0.00 82 1014.4
20240222081502 19 183 14.5 30.6 0.00 0.00 0.00 82 1014.4
20240222081403 19 188 16.1 30.6 0.00 0.00 0.00 82 1014.4
20240222081301 19 228 19.3 30.6 0.00 0.00 0.00 82 1014.3
20240222081202 19 185 17.7 32.2 0.00 0.00 0.00 82 1014.3
20240222081102 19 190 14.5 32.2 0.00 0.00 0.00 82 1014.3
20240222081004 19 180 14.5 32.2 0.00 0.00 0.00 82 1014.4
20240222080902 19 190 14.5 32.2 0.00 0.00 0.00 82 1014.4
20240222080804 19 186 16.1 32.2 0.00 0.00 0.00 82 1014.3
20240222080703 19 189 19.3 32.2 0.00 0.00 0.00 82 1014.3
20240222080604 19 182 19.3 32.2 0.00 0.00 0.00 82 1014.3
20240222080502 19 189 17.7 32.2 0.00 0.00 0.00 82 1014.4
20240222080401 19 199 22.5 32.2 0.00 0.00 0.00 82 1014.3
20240222080303 19 182 22.5 32.2 0.00 0.00 0.00 82 1014.4
20240222080202 19 179 16.1 30.6 0.00 0.00 0.00 82 1014.4
20240222080102 19 176 14.5 27.4 0.00 0.00 0.00 82 1014.5
20240222080002 19 197 16.1 27.4 0.00 0.00 0.00 82 1014.5
20240222075902 19 189 17.7 27.4 0.00 0.00 0.00 82 1014.5
20240222075802 19 203 19.3 27.4 0.00 0.00 0.00 82 1014.5
20240222075702 19 180 17.7 27.4 0.00 0.00 0.00 82 1014.6
20240222075604 19 172 16.1 30.6 0.00 0.00 0.00 82 1014.5
20240222075504 19 155 19.3 30.6 0.00 0.00 0.00 82 1014.6
20240222075401 19 182 16.1 30.6 0.00 0.00 0.00 82 1014.6
20240222075305 19 204 14.5 30.6 0.00 0.00 0.00 82 1014.6
20240222075202 19 161 16.1 30.6 0.00 0.00 0.00 82 1014.7
20240222075102 19 217 17.7 30.6 0.00 0.00 0.00 82 1014.7
20240222075003 19 199 16.1 30.6 0.00 0.00 0.00 82 1014.6
20240222074903 19 207 14.5 30.6 0.00 0.00 0.00 81 1014.7
20240222074802 19 212 14.5 30.6 0.00 0.00 0.00 81 1014.7
20240222074704 19 185 17.7 30.6 0.00 0.00 0.00 82 1014.7
20240222074603 19 202 17.7 30.6 0.00 0.00 0.00 81 1014.7
20240222074503 19 171 14.5 30.6 0.00 0.00 0.00 81 1014.6
20240222074402 19 199 17.7 30.6 0.00 0.00 0.00 81 1014.7
20240222074302 19 185 20.9 30.6 0.00 0.00 0.00 82 1014.6
20240222074202 19 189 19.3 30.6 0.00 0.00 0.00 81 1014.7
20240222074102 19 166 14.5 30.6 0.00 0.00 0.00 81 1014.6
20240222074003 19 168 17.7 30.6 0.00 0.00 0.00 81 1014.7
20240222073903 19 210 20.9 30.6 0.00 0.00 0.00 81 1014.7
20240222073802 19 179 20.9 30.6 0.00 0.00 0.00 81 1014.6
20240222073701 19 179 19.3 27.4 0.00 0.00 0.00 81 1014.7
20240222073601 19 188 19.3 29.0 0.00 0.00 0.00 81 1014.7
20240222073502 19 179 16.1 29.0 0.00 0.00 0.00 81 1014.7
20240222073402 19 182 17.7 29.0 0.00 0.00 0.00 81 1014.8
20240222073303 19 203 17.7 29.0 0.00 0.00 0.00 81 1014.8
20240222073202 19 168 17.7 29.0 0.00 0.00 0.00 81 1014.8
20240222073102 19 206 19.3 29.0 0.00 0.00 0.00 81 1014.8
20240222073002 19 180 17.7 29.0 0.00 0.00 0.00 81 1014.8
20240222072904 19 188 17.7 29.0 0.00 0.00 0.00 81 1014.8
20240222072802 19 158 17.7 29.0 0.00 0.00 0.00 81 1014.9
20240222072702 19 183 17.7 29.0 0.00 0.00 0.00 81 1014.8
20240222072603 19 175 19.3 30.6 0.00 0.00 0.00 81 1014.9
20240222072503 19 189 19.3 30.6 0.00 0.00 0.00 81 1014.9
20240222072402 19 193 17.7 30.6 0.00 0.00 0.00 81 1014.8
20240222072305 19 189 17.7 30.6 0.00 0.00 0.00 81 1014.9
20240222072203 19 169 17.7 30.6 0.00 0.00 0.00 81 1014.9
20240222072102 19 199 19.3 30.6 0.00 0.00 0.00 81 1014.9
20240222072002 19 166 17.7 30.6 0.00 0.00 0.00 81 1014.9
20240222071903 19 193 17.7 30.6 0.00 0.00 0.00 81 1014.9
20240222071802 19 180 17.7 30.6 0.00 0.00 0.00 81 1015.0
20240222071703 19 173 20.9 30.6 0.00 0.00 0.00 81 1015.0
20240222071603 19 188 20.9 30.6 0.00 0.00 0.00 80 1014.9
20240222071503 19 203 19.3 30.6 0.00 0.00 0.00 80 1014.9
20240222071402 19 197 17.7 30.6 0.00 0.00 0.00 80 1015.0
20240222071302 19 179 17.7 37.0 0.00 0.00 0.00 80 1014.9
20240222071201 19 197 17.7 37.0 0.00 0.00 0.00 80 1015.0
20240222071102 19 185 16.1 37.0 0.00 0.00 0.00 80 1015.0
20240222071002 19 195 17.7 37.0 0.00 0.00 0.00 80 1015.0
20240222070902 19 180 19.3 37.0 0.00 0.00 0.00 80 1015.0
20240222070804 19 197 20.9 37.0 0.00 0.00 0.00 80 1015.1
20240222070702 19 188 24.1 37.0 0.00 0.00 0.00 80 1015.1
20240222070602 19 203 20.9 37.0 0.00 0.00 0.00 80 1015.0
20240222070504 19 166 20.9 37.0 0.00 0.00 0.00 80 1015.0
20240222070402 19 190 19.3 37.0 0.00 0.00 0.00 80 1015.1
20240222070301 19 179 14.5 30.6 0.00 0.00 0.00 80 1015.1
20240222070202 19 182 14.5 30.6 0.00 0.00 0.00 80 1015.1
20240222070103 19 173 14.5 30.6 0.00 0.00 0.00 80 1015.1
20240222070002 19 172 17.7 30.6 0.00 0.00 0.00 80 1015.1
20240222065902 19 175 20.9 30.6 0.00 0.00 0.00 80 1015.1
20240222065803 19 161 16.1 30.6 0.00 0.00 0.00 80 1015.1
20240222065703 19 172 11.3 27.4 0.00 0.00 0.00 80 1015.1
20240222065603 19 168 12.9 27.4 0.00 0.00 0.00 80 1015.1
20240222065503 19 173 12.9 27.4 0.00 0.00 0.00 80 1015.2
20240222065403 19 179 16.1 27.4 0.00 0.00 0.00 80 1015.1
20240222065305 19 182 16.1 27.4 0.00 0.00 0.00 80 1015.2
20240222065202 19 197 14.5 27.4 0.00 0.00 0.00 80 1015.2
20240222065103 19 186 16.1 27.4 0.00 0.00 0.00 80 1015.2
20240222065003 19 169 19.3 27.4 0.00 0.00 0.00 80 1015.2
20240222064901 19 230 20.9 27.4 0.00 0.00 0.00 80 1015.2
20240222064803 19 178 17.7 25.7 0.00 0.00 0.00 80 1015.2
20240222064702 19 172 17.7 25.7 0.00 0.00 0.00 80 1015.2
20240222064602 19 186 19.3 25.7 0.00 0.00 0.00 80 1015.3
20240222064503 19 169 16.1 25.7 0.00 0.00 0.00 80 1015.4
20240222064404 19 173 14.5 25.7 0.00 0.00 0.00 80 1015.4
20240222064302 19 180 14.5 25.7 0.00 0.00 0.00 79 1015.3
20240222064201 19 202 14.5 25.7 0.00 0.00 0.00 79 1015.4
20240222064103 19 166 12.9 25.7 0.00 0.00 0.00 79 1015.4
20240222064003 19 185 17.7 29.0 0.00 0.00 0.00 79 1015.4
20240222063903 19 190 17.7 29.0 0.00 0.00 0.00 79 1015.3
20240222063802 19 180 16.1 29.0 0.00 0.00 0.00 79 1015.4
20240222063702 19 186 14.5 29.0 0.00 0.00 0.00 79 1015.3
20240222063602 19 193 12.9 29.0 0.00 0.00 0.00 79 1015.3
20240222063502 19 185 16.1 29.0 0.00 0.00 0.00 79 1015.3
20240222063404 19 182 17.7 29.0 0.00 0.00 0.00 79 1015.3
20240222063301 19 183 16.1 29.0 0.00 0.00 0.00 79 1015.3
20240222063201 19 155 19.3 30.6 0.00 0.00 0.00 79 1015.4
20240222063103 19 189 19.3 30.6 0.00 0.00 0.00 79 1015.4
20240222063003 19 199 16.1 30.6 0.00 0.00 0.00 79 1015.4
20240222062902 19 172 14.5 30.6 0.00 0.00 0.00 80 1015.3
20240222062802 19 183 17.7 30.6 0.00 0.00 0.00 80 1015.3
20240222062703 19 188 16.1 30.6 0.00 0.00 0.00 80 1015.2
20240222062603 19 176 14.5 30.6 0.00 0.00 0.00 80 1015.2
20240222062502 19 169 17.7 30.6 0.00 0.00 0.00 80 1015.2
20240222062403 19 173 22.5 30.6 0.00 0.00 0.00 80 1015.3
20240222062305 19 165 19.3 30.6 0.00 0.00 0.00 80 1015.3
20240222062202 19 164 17.7 25.7 0.00 0.00 0.00 80 1015.3
20240222062102 19 175 17.7 24.1 0.00 0.00 0.00 80 1015.2
20240222062003 19 165 16.1 24.1 0.00 0.00 0.00 80 1015.3
20240222061903 19 168 14.5 27.4 0.00 0.00 0.00 80 1015.4
20240222061802 19 183 17.7 27.4 0.00 0.00 0.00 80 1015.4
20240222061703 19 199 16.1 27.4 0.00 0.00 0.00 80 1015.4
20240222061602 19 175 12.9 27.4 0.00 0.00 0.00 80 1015.5
20240222061501 19 166 11.3 27.4 0.00 0.00 0.00 80 1015.6
20240222061402 19 185 11.3 27.4 0.00 0.00 0.00 80 1015.7
20240222061304 19 172 14.5 27.4 0.00 0.00 0.00 80 1015.7
20240222061203 19 172 14.5 27.4 0.00 0.00 0.00 80 1015.7
20240222061102 19 188 17.7 27.4 0.00 0.00 0.00 80 1015.7
20240222061003 19 196 16.1 27.4 0.00 0.00 0.00 80 1015.7
20240222060903 19 171 12.9 20.9 0.00 0.00 0.00 80 1015.7
20240222060802 19 182 12.9 20.9 0.00 0.00 0.00 80 1015.7
20240222060704 19 186 14.5 20.9 0.00 0.00 0.00 80 1015.7
20240222060602 19 195 12.9 24.1 0.00 0.00 0.00 80 1015.7
20240222060502 19 179 12.9 24.1 0.00 0.00 0.00 80 1015.7
20240222060402 19 186 12.9 25.7 0.00 0.00 0.00 80 1015.7
20240222060303 19 165 11.3 25.7 0.00 0.00 0.00 80 1015.6
20240222060202 19 197 14.5 25.7 0.00 0.00 0.00 80 1015.7
20240222060102 19 183 14.5 25.7 0.00 0.00 0.00 80 1015.7
20240222060003 19 188 12.9 25.7 0.00 0.00 0.00 80 1015.7
20240222055903 19 206 14.5 25.7 0.00 0.00 0.00 80 1015.8
20240222055803 19 192 17.7 25.7 0.00 0.00 0.00 80 1015.8
20240222055702 19 176 17.7 25.7 0.00 0.00 0.00 80 1015.8
20240222055604 19 197 17.7 25.7 0.00 0.00 0.00 80 1015.9
20240222055502 19 169 19.3 25.7 0.00 0.00 0.00 80 1015.8
20240222055402 19 195 17.7 25.7 0.00 0.00 0.00 80 1015.7
20240222055305 19 183 12.9 24.1 0.00 0.00 0.00 80 1015.8
20240222055202 19 200 12.9 27.4 0.00 0.00 0.00 80 1015.9
20240222055101 19 175 12.9 27.4 0.00 0.00 0.00 80 1015.8
20240222055002 19 197 12.9 27.4 0.00 0.00 0.00 80 1015.8
20240222054902 19 196 14.5 27.4 0.00 0.00 0.00 80 1015.8
20240222054802 19 192 14.5 27.4 0.00 0.00 0.00 81 1015.8
20240222054701 19 171 14.5 27.4 0.00 0.00 0.00 81 1015.9
20240222054603 19 173 14.5 27.4 0.00 0.00 0.00 81 1015.9
20240222054502 19 176 14.5 27.4 0.00 0.00 0.00 81 1015.9
20240222054402 19 185 16.1 27.4 0.00 0.00 0.00 81 1015.9
20240222054303 19 171 14.5 27.4 0.00 0.00 0.00 81 1016.0
20240222054203 19 176 14.5 27.4 0.00 0.00 0.00 81 1016.0
20240222054102 19 200 16.1 27.4 0.00 0.00 0.00 81 1016.0
20240222054002 19 173 17.7 27.4 0.00 0.00 0.00 81 1015.9
20240222053903 19 178 17.7 27.4 0.00 0.00 0.00 81 1015.9
20240222053802 19 158 16.1 27.4 0.00 0.00 0.00 81 1016.0
20240222053701 19 173 14.5 27.4 0.00 0.00 0.00 81 1015.9
20240222053603 19 152 17.7 27.4 0.00 0.00 0.00 81 1016.0
20240222053503 19 190 17.7 27.4 0.00 0.00 0.00 81 1015.9
20240222053402 19 175 16.1 27.4 0.00 0.00 0.00 81 1015.9
20240222053301 19 168 16.1 25.7 0.00 0.00 0.00 81 1015.9
20240222053204 19 190 16.1 25.7 0.00 0.00 0.00 81 1015.9
20240222053102 19 151 12.9 25.7 0.00 0.00 0.00 81 1015.9
20240222053003 19 185 12.9 25.7 0.00 0.00 0.00 81 1015.9
20240222052904 19 172 14.5 25.7 0.00 0.00 0.00 82 1015.9
20240222052802 19 176 16.1 25.7 0.00 0.00 0.00 82 1016.0
20240222052702 19 179 17.7 25.7 0.00 0.00 0.00 82 1015.9
20240222052603 19 176 16.1 25.7 0.00 0.00 0.00 82 1016.0
20240222052504 19 155 16.1 25.7 0.00 0.00 0.00 82 1016.0
20240222052402 19 172 16.1 25.7 0.00 0.00 0.00 82 1016.1
20240222052305 19 180 17.7 25.7 0.00 0.00 0.00 82 1016.0
20240222052203 19 173 16.1 25.7 0.00 0.00 0.00 82 1016.0
20240222052102 19 195 16.1 25.7 0.00 0.00 0.00 82 1016.0
20240222052002 19 179 12.9 25.7 0.00 0.00 0.00 82 1016.0
20240222051902 19 158 14.5 25.7 0.00 0.00 0.00 82 1016.0
20240222051803 19 188 16.1 25.7 0.00 0.00 0.00 82 1016.0
20240222051702 19 171 12.9 25.7 0.00 0.00 0.00 82 1015.9
20240222051603 19 179 14.5 27.4 0.00 0.00 0.00 82 1015.9
20240222051502 19 190 14.5 27.4 0.00 0.00 0.00 82 1015.9
20240222051401 19 168 16.1 27.4 0.00 0.00 0.00 82 1015.9
20240222051302 19 180 16.1 27.4 0.00 0.00 0.00 82 1015.9
20240222051204 19 196 16.1 27.4 0.00 0.00 0.00 82 1016.0
20240222051102 19 204 17.7 29.0 0.00 0.00 0.00 82 1016.0
20240222051002 19 175 17.7 29.0 0.00 0.00 0.00 82 1016.0
20240222050902 19 183 16.1 29.0 0.00 0.00 0.00 82 1016.0
20240222050802 19 188 17.7 29.0 0.00 0.00 0.00 82 1015.9
20240222050702 19 182 17.7 29.0 0.00 0.00 0.00 82 1015.9
20240222050603 19 166 14.5 29.0 0.00 0.00 0.00 82 1015.9
20240222050503 19 190 14.5 29.0 0.00 0.00 0.00 82 1015.9
20240222050402 19 206 17.7 29.0 0.00 0.00 0.00 82 1015.9
20240222050303 19 175 20.9 29.0 0.00 0.00 0.00 82 1015.9
20240222050203 19 189 17.7 29.0 0.00 0.00 0.00 82 1015.9
20240222050103 19 166 14.5 25.7 0.00 0.00 0.00 82 1015.9
20240222050001 19 202 14.5 30.6 0.00 0.00 0.00 82 1015.8
20240222045902 19 165 12.9 30.6 0.00 0.00 0.00 82 1015.7
20240222045802 19 179 16.1 30.6 0.00 0.00 0.00 82 1015.6
20240222045702 19 189 17.7 30.6 0.00 0.00 0.00 82 1015.6
20240222045602 19 168 16.1 30.6 0.00 0.00 0.00 82 1015.6
20240222045503 19 204 14.5 30.6 0.00 0.00 0.00 82 1015.6
20240222045402 19 197 16.1 30.6 0.00 0.00 0.00 82 1015.6
20240222045305 19 183 17.7 30.6 0.00 0.00 0.00 82 1015.6
20240222045202 19 175 20.9 30.6 0.00 0.00 0.00 82 1015.6
20240222045102 19 155 17.7 30.6 0.00 0.00 0.00 82 1015.6
20240222045002 19 161 16.1 30.6 0.00 0.00 0.00 82 1015.6
20240222044902 19 203 19.3 30.6 0.00 0.00 0.00 82 1015.5
20240222044803 19 180 16.1 30.6 0.00 0.00 0.00 82 1015.5
20240222044703 19 207 12.9 30.6 0.00 0.00 0.00 82 1015.4
20240222044603 19 172 11.3 30.6 0.00 0.00 0.00 82 1015.4
20240222044501 19 168 12.9 30.6 0.00 0.00 0.00 82 1015.4
20240222044402 19 157 14.5 30.6 0.00 0.00 0.00 82 1015.3
20240222044302 19 190 20.9 30.6 0.00 0.00 0.00 82 1015.3
20240222044202 19 173 20.9 30.6 0.00 0.00 0.00 82 1015.3
20240222044103 19 172 17.7 35.4 0.00 0.00 0.00 82 1015.2
20240222044002 19 186 14.5 35.4 0.00 0.00 0.00 82 1015.2
20240222043902 19 166 14.5 35.4 0.00 0.00 0.00 82 1015.2
20240222043803 19 178 16.1 35.4 0.00 0.00 0.00 82 1015.2
20240222043702 19 176 17.7 35.4 0.00 0.00 0.00 82 1015.1
20240222043604 19 171 17.7 35.4 0.00 0.00 0.00 82 1015.2
20240222043502 19 151 17.7 35.4 0.00 0.00 0.00 82 1015.1
20240222043402 19 148 19.3 38.6 0.00 0.00 0.00 82 1015.2
20240222043302 19 169 19.3 38.6 0.00 0.00 0.00 82 1015.2
20240222043203 19 161 17.7 38.6 0.00 0.00 0.00 82 1015.2
20240222043104 19 171 20.9 38.6 0.00 0.00 0.00 82 1015.2
20240222043003 19 169 22.5 38.6 0.00 0.00 0.00 82 1015.2
20240222042901 19 190 22.5 38.6 0.00 0.00 0.00 82 1015.2
20240222042802 19 204 19.3 38.6 0.00 0.00 0.00 82 1015.2
20240222042703 19 196 20.9 38.6 0.00 0.00 0.00 82 1015.3
20240222042602 19 180 24.1 38.6 0.00 0.00 0.00 82 1015.3
20240222042501 19 193 25.7 38.6 0.00 0.00 0.00 82 1015.3
20240222042402 19 196 20.9 37.0 0.00 0.00 0.00 82 1015.2
20240222042305 19 158 17.7 37.0 0.00 0.00 0.00 82 1015.3
20240222042203 19 161 17.7 37.0 0.00 0.00 0.00 82 1015.3
20240222042102 19 161 19.3 37.0 0.00 0.00 0.00 82 1015.4
20240222042003 19 203 19.3 37.0 0.00 0.00 0.00 82 1015.3
20240222041902 19 207 20.9 37.0 0.00 0.00 0.00 82 1015.3
20240222041802 19 161 24.1 37.0 0.00 0.00 0.00 82 1015.4
20240222041703 19 168 22.5 37.0 0.00 0.00 0.00 82 1015.3
20240222041604 19 179 19.3 37.0 0.00 0.00 0.00 82 1015.4
20240222041502 19 169 19.3 37.0 0.00 0.00 0.00 82 1015.4
20240222041402 19 173 22.5 37.0 0.00 0.00 0.00 82 1015.3
20240222041302 19 158 22.5 37.0 0.00 0.00 0.00 82 1015.3
20240222041203 19 152 17.7 37.0 0.00 0.00 0.00 82 1015.4
20240222041103 19 176 19.3 37.0 0.00 0.00 0.00 82 1015.4
20240222041004 19 175 20.9 37.0 0.00 0.00 0.00 82 1015.4
20240222040902 19 195 22.5 37.0 0.00 0.00 0.00 82 1015.4
20240222040802 19 171 24.1 37.0 0.00 0.00 0.00 82 1015.4
20240222040703 19 195 16.1 37.0 0.00 0.00 0.00 82 1015.5
20240222040602 19 179 16.1 37.0 0.00 0.00 0.00 82 1015.6
20240222040503 19 176 20.9 38.6 0.00 0.00 0.00 82 1015.5
20240222040403 19 173 20.9 38.6 0.00 0.00 0.00 82 1015.6
20240222040304 19 172 20.9 38.6 0.00 0.00 0.00 82 1015.6
20240222040201 19 188 17.7 38.6 0.00 0.00 0.00 82 1015.7
20240222040102 19 151 17.7 38.6 0.00 0.00 0.00 82 1015.7
20240222040005 19 149 22.5 38.6 0.00 0.00 0.00 82 1015.7
20240222035902 19 188 24.1 38.6 0.00 0.00 0.00 82 1015.7
20240222035803 19 158 27.4 46.7 0.00 0.00 0.00 82 1015.7
20240222035703 19 175 25.7 46.7 0.00 0.00 0.00 82 1015.7
20240222035602 19 203 20.9 46.7 0.00 0.00 0.00 82 1015.4
20240222035503 19 200 19.3 46.7 0.00 0.00 0.00 82 1015.6
20240222035403 19 148 20.9 46.7 0.00 0.00 0.00 82 1015.5
20240222035306 19 178 24.1 46.7 0.00 0.00 0.00 82 1015.4
20240222035201 19 188 22.5 46.7 0.00 0.00 0.00 82 1015.4
20240222035102 19 189 20.9 46.7 0.00 0.00 0.00 82 1015.3
20240222035005 19 137 25.7 46.7 0.00 0.00 0.00 82 1015.4
20240222034903 19 178 24.1 46.7 0.00 0.00 0.00 82 1015.3
20240222034802 20 176 16.1 41.8 0.00 0.00 0.00 82 1015.3
20240222034702 20 190 17.7 41.8 0.00 0.00 0.00 82 1015.4
20240222034603 20 178 20.9 41.8 0.00 0.00 0.00 82 1015.3
20240222034503 20 178 17.7 41.8 0.00 0.00 0.00 82 1015.4
20240222034402 20 199 19.3 41.8 0.00 0.00 0.00 81 1015.4
20240222034303 20 168 25.7 41.8 0.00 0.00 0.00 81 1015.4
20240222034202 20 179 25.7 41.8 0.00 0.00 0.00 81 1015.5
20240222034103 20 172 22.5 35.4 0.00 0.00 0.00 81 1015.6
20240222034003 20 196 22.5 35.4 0.00 0.00 0.00 81 1015.7
20240222033902 20 173 22.5 35.4 0.00 0.00 0.00 81 1015.7
20240222033802 20 166 22.5 35.4 0.00 0.00 0.00 81 1015.9
20240222033702 20 161 24.1 35.4 0.00 0.00 0.00 81 1016.0
20240222033602 20 168 22.5 35.4 0.00 0.00 0.00 81 1016.0
20240222033502 20 183 20.9 32.2 0.00 0.00 0.00 81 1016.0
20240222033401 20 175 20.9 32.2 0.00 0.00 0.00 81 1016.1
20240222033303 20 173 19.3 32.2 0.00 0.00 0.00 81 1016.2
20240222033202 20 166 17.7 32.2 0.00 0.00 0.00 80 1016.2
20240222033102 20 179 20.9 32.2 0.00 0.00 0.00 80 1016.2
20240222033002 20 169 24.1 32.2 0.00 0.00 0.00 80 1016.3
20240222032904 20 162 22.5 32.2 0.00 0.00 0.00 80 1016.3
20240222032802 20 144 20.9 32.2 0.00 0.00 0.00 80 1016.3
20240222032702 20 172 17.7 32.2 0.00 0.00 0.00 80 1016.5
20240222032603 20 171 17.7 30.6 0.00 0.00 0.00 80 1016.5
20240222032503 20 175 19.3 37.0 0.00 0.00 0.00 80 1016.5
20240222032402 20 172 17.7 37.0 0.00 0.00 0.00 80 1016.5
20240222032306 20 185 22.5 37.0 0.00 0.00 0.00 80 1016.6
20240222032203 20 161 24.1 37.0 0.00 0.00 0.00 80 1016.5
20240222032102 20 175 22.5 37.0 0.00 0.00 0.00 80 1016.6
20240222032002 20 202 22.5 37.0 0.00 0.00 0.00 80 1016.6
20240222031902 20 171 20.9 37.0 0.00 0.00 0.00 80 1016.7
20240222031801 20 145 19.3 37.0 0.00 0.00 0.00 80 1016.7
20240222031702 20 179 22.5 37.0 0.00 0.00 0.00 80 1016.7
20240222031605 20 188 27.4 37.0 0.00 0.00 0.00 80 1016.7
20240222031503 20 186 24.1 32.2 0.00 0.00 0.00 81 1016.7
20240222031401 20 169 20.9 32.2 0.00 0.00 0.00 81 1016.8
20240222031302 19 161 20.9 32.2 0.00 0.00 0.00 81 1016.8
20240222031202 19 169 20.9 32.2 0.00 0.00 0.00 81 1016.9
20240222031102 19 124 19.3 30.6 0.00 0.00 0.00 81 1016.9
20240222031001 19 165 20.9 30.6 0.00 0.00 0.00 81 1016.9
20240222030902 19 175 20.9 30.6 0.00 0.00 0.00 82 1016.9
20240222030802 19 157 19.3 30.6 0.00 0.00 0.00 82 1016.9
20240222030703 19 159 17.7 30.6 0.00 0.00 0.00 82 1016.8
20240222030602 19 159 16.1 25.7 0.00 0.00 0.00 82 1016.9
20240222030503 20 155 14.5 29.0 0.00 0.00 0.00 82 1016.9
20240222030402 20 155 12.9 29.0 0.00 0.00 0.00 82 1017.0
20240222030302 20 164 14.5 29.0 0.00 0.00 0.00 82 1017.0
20240222030203 20 171 16.1 29.0 0.00 0.00 0.00 82 1017.0
20240222030102 20 192 14.5 29.0 0.00 0.00 0.00 82 1016.8
20240222030002 20 161 14.5 29.0 0.00 0.00 0.00 82 1017.0
20240222025902 20 173 17.7 29.0 0.00 0.00 0.00 82 1017.0
20240222025802 20 185 17.7 29.0 0.00 0.00 0.00 82 1017.0
20240222025702 20 169 17.7 30.6 0.00 0.00 0.00 82 1017.0
20240222025602 20 155 17.7 37.0 0.00 0.00 0.00 82 1017.0
20240222025503 20 182 17.7 37.0 0.00 0.00 0.00 82 1017.0
20240222025402 20 183 14.5 37.0 0.00 0.00 0.00 82 1017.0
20240222025305 20 162 14.5 37.0 0.00 0.00 0.00 82 1016.9
20240222025203 20 173 14.5 37.0 0.00 0.00 0.00 82 1016.8
20240222025102 20 149 14.5 37.0 0.00 0.00 0.00 82 1016.8
20240222025003 20 175 16.1 37.0 0.00 0.00 0.00 82 1016.9
20240222024902 20 179 19.3 37.0 0.00 0.00 0.00 82 1016.9
20240222024804 20 175 20.9 37.0 0.00 0.00 0.00 82 1016.9
20240222024702 20 171 22.5 33.8 0.00 0.00 0.00 82 1016.8
20240222024602 20 176 20.9 30.6 0.00 0.00 0.00 81 1016.8
20240222024502 20 158 19.3 27.4 0.00 0.00 0.00 81 1016.8
20240222024403 20 149 20.9 27.4 0.00 0.00 0.00 81 1016.8
20240222024302 20 182 19.3 27.4 0.00 0.00 0.00 82 1016.9
20240222024203 20 203 14.5 24.1 0.00 0.00 0.00 82 1016.8
20240222024102 20 196 12.9 24.1 0.00 0.00 0.00 82 1016.9
20240222024002 20 168 14.5 25.7 0.00 0.00 0.00 82 1016.9
20240222023902 20 173 12.9 25.7 0.00 0.00 0.00 82 1016.9
20240222023802 20 137 12.9 25.7 0.00 0.00 0.00 82 1016.9
20240222023703 20 155 14.5 25.7 0.00 0.00 0.00 82 1016.9
20240222023602 20 168 14.5 25.7 0.00 0.00 0.00 82 1016.9
20240222023503 20 168 14.5 25.7 0.00 0.00 0.00 82 1016.8
20240222023402 20 172 14.5 25.7 0.00 0.00 0.00 82 1016.9
20240222023303 20 178 14.5 25.7 0.00 0.00 0.00 81 1016.8
20240222023202 20 166 16.1 25.7 0.00 0.00 0.00 81 1016.9
20240222023102 20 176 16.1 25.7 0.00 0.00 0.00 81 1016.8
20240222023003 20 178 14.5 24.1 0.00 0.00 0.00 81 1016.8
20240222022902 20 165 16.1 24.1 0.00 0.00 0.00 81 1016.8
20240222022804 20 155 17.7 25.7 0.00 0.00 0.00 81 1016.9
20240222022703 20 154 17.7 25.7 0.00 0.00 0.00 81 1016.9
20240222022602 20 190 16.1 25.7 0.00 0.00 0.00 81 1016.9
20240222022502 20 148 16.1 25.7 0.00 0.00 0.00 81 1017.0
20240222022402 20 172 16.1 25.7 0.00 0.00 0.00 81 1017.0
20240222022305 20 173 16.1 25.7 0.00 0.00 0.00 81 1017.0
20240222022202 20 182 14.5 25.7 0.00 0.00 0.00 81 1017.0
20240222022102 20 159 14.5 25.7 0.00 0.00 0.00 81 1017.0
20240222022004 20 217 17.7 27.4 0.00 0.00 0.00 81 1017.0
20240222021902 20 168 17.7 29.0 0.00 0.00 0.00 81 1017.0
20240222021803 20 166 16.1 29.0 0.00 0.00 0.00 81 1017.0
20240222021704 20 176 14.5 29.0 0.00 0.00 0.00 81 1017.0
20240222021603 20 168 14.5 29.0 0.00 0.00 0.00 81 1017.0
20240222021502 20 172 16.1 29.0 0.00 0.00 0.00 81 1017.0
20240222021403 20 192 17.7 29.0 0.00 0.00 0.00 81 1017.0
20240222021303 20 165 19.3 29.0 0.00 0.00 0.00 81 1017.0
20240222021201 20 178 19.3 29.0 0.00 0.00 0.00 81 1016.9
20240222021103 20 178 20.9 29.0 0.00 0.00 0.00 81 1016.9
20240222021003 20 178 19.3 29.0 0.00 0.00 0.00 81 1016.9
20240222020902 20 190 16.1 27.4 0.00 0.00 0.00 81 1017.0
20240222020802 20 179 17.7 29.0 0.00 0.00 0.00 81 1017.0
20240222020702 20 186 16.1 29.0 0.00 0.00 0.00 81 1017.1
20240222020602 20 162 14.5 29.0 0.00 0.00 0.00 81 1017.2
20240222020502 20 171 14.5 29.0 0.00 0.00 0.00 81 1017.3
20240222020403 20 151 12.9 29.0 0.00 0.00 0.00 81 1017.3
20240222020302 20 179 17.7 29.0 0.00 0.00 0.00 81 1017.5
20240222020202 20 179 17.7 29.0 0.00 0.00 0.00 81 1017.6
20240222020104 20 152 14.5 29.0 0.00 0.00 0.00 81 1017.5
20240222020003 20 183 19.3 29.0 0.00 0.00 0.00 81 1017.6
20240222015902 20 186 20.9 29.0 0.00 0.00 0.00 81 1017.6
20240222015803 20 183 16.1 29.0 0.00 0.00 0.00 81 1017.6
20240222015703 20 172 17.7 29.0 0.00 0.00 0.00 81 1017.6
20240222015602 20 175 19.3 30.6 0.00 0.00 0.00 81 1017.5
20240222015502 20 182 19.3 30.6 0.00 0.00 0.00 81 1017.6
20240222015403 20 176 16.1 30.6 0.00 0.00 0.00 81 1017.6
20240222015305 20 193 14.5 30.6 0.00 0.00 0.00 81 1017.6
20240222015202 20 188 16.1 30.6 0.00 0.00 0.00 81 1017.6
20240222015102 20 172 16.1 30.6 0.00 0.00 0.00 80 1017.6
20240222015003 20 166 17.7 30.6 0.00 0.00 0.00 80 1017.7
20240222014903 20 186 17.7 30.6 0.00 0.00 0.00 80 1017.6
20240222014803 20 173 19.3 30.6 0.00 0.00 0.00 80 1017.7
20240222014704 20 159 20.9 30.6 0.00 0.00 0.00 81 1017.5
20240222014602 20 155 19.3 29.0 0.00 0.00 0.00 80 1017.6
20240222014502 20 152 16.1 29.0 0.00 0.00 0.00 81 1017.6
20240222014403 20 166 14.5 29.0 0.00 0.00 0.00 80 1017.6
20240222014303 20 164 16.1 29.0 0.00 0.00 0.00 80 1017.5
20240222014203 20 179 17.7 29.0 0.00 0.00 0.00 80 1017.6
20240222014102 20 199 20.9 29.0 0.00 0.00 0.00 80 1017.5
20240222014003 20 182 17.7 29.0 0.00 0.00 0.00 80 1017.5
20240222013902 20 190 14.5 27.4 0.00 0.00 0.00 80 1017.6
20240222013802 20 164 16.1 27.4 0.00 0.00 0.00 80 1017.6
20240222013702 20 179 16.1 27.4 0.00 0.00 0.00 80 1017.6
20240222013603 20 157 14.5 27.4 0.00 0.00 0.00 80 1017.6
20240222013502 20 159 14.5 27.4 0.00 0.00 0.00 80 1017.7
20240222013402 20 171 14.5 27.4 0.00 0.00 0.00 80 1017.8
20240222013303 20 168 14.5 29.0 0.00 0.00 0.00 80 1017.8
20240222013202 20 161 16.1 29.0 0.00 0.00 0.00 80 1017.8
20240222013101 20 169 14.5 29.0 0.00 0.00 0.00 80 1017.8
20240222013003 20 188 14.5 29.0 0.00 0.00 0.00 80 1017.8
20240222012902 20 169 17.7 29.0 0.00 0.00 0.00 80 1017.8
20240222012803 20 173 19.3 29.0 0.00 0.00 0.00 80 1017.8
20240222012702 20 165 19.3 29.0 0.00 0.00 0.00 80 1017.8
20240222012603 20 206 16.1 29.0 0.00 0.00 0.00 80 1017.8
20240222012502 20 188 16.1 29.0 0.00 0.00 0.00 80 1017.8
20240222012402 20 182 17.7 29.0 0.00 0.00 0.00 80 1017.7
20240222012305 20 165 16.1 27.4 0.00 0.00 0.00 80 1017.9
20240222012203 20 158 16.1 27.4 0.00 0.00 0.00 80 1017.9
20240222012103 20 179 14.5 27.4 0.00 0.00 0.00 80 1018.0
20240222012003 20 164 12.9 27.4 0.00 0.00 0.00 80 1018.0
20240222011902 20 169 16.1 27.4 0.00 0.00 0.00 80 1017.9
20240222011802 20 183 16.1 27.4 0.00 0.00 0.00 80 1018.0
20240222011702 20 178 16.1 27.4 0.00 0.00 0.00 80 1018.0
20240222011603 20 161 17.7 27.4 0.00 0.00 0.00 79 1018.0
20240222011501 20 168 19.3 27.4 0.00 0.00 0.00 79 1018.0
20240222011401 20 166 17.7 27.4 0.00 0.00 0.00 79 1017.9
20240222011303 20 155 12.9 30.6 0.00 0.00 0.00 79 1018.0
20240222011202 20 202 14.5 30.6 0.00 0.00 0.00 80 1018.0
20240222011101 20 168 12.9 30.6 0.00 0.00 0.00 80 1018.0
20240222011002 20 175 11.3 30.6 0.00 0.00 0.00 79 1018.0
20240222010903 20 190 14.5 30.6 0.00 0.00 0.00 79 1018.0
20240222010802 20 196 14.5 30.6 0.00 0.00 0.00 79 1017.9
20240222010701 20 162 14.5 30.6 0.00 0.00 0.00 79 1018.0
20240222010603 20 230 17.7 30.6 0.00 0.00 0.00 79 1018.0
20240222010502 20 186 17.7 30.6 0.00 0.00 0.00 79 1018.0
20240222010402 20 178 17.7 30.6 0.00 0.00 0.00 79 1018.0
20240222010303 20 192 17.7 25.7 0.00 0.00 0.00 79 1017.9
20240222010202 20 173 16.1 24.1 0.00 0.00 0.00 79 1017.9
20240222010102 20 173 14.5 24.1 0.00 0.00 0.00 79 1017.9
20240222010002 20 172 14.5 24.1 0.00 0.00 0.00 79 1017.9
20240222005903 20 188 12.9 24.1 0.00 0.00 0.00 79 1017.8
20240222005802 20 180 12.9 24.1 0.00 0.00 0.00 79 1017.8
20240222005702 20 161 14.5 30.6 0.00 0.00 0.00 79 1017.8
20240222005604 20 176 17.7 30.6 0.00 0.00 0.00 79 1017.8
20240222005504 20 186 14.5 30.6 0.00 0.00 0.00 79 1017.8
20240222005402 20 158 11.3 30.6 0.00 0.00 0.00 79 1017.8
20240222005306 20 189 11.3 30.6 0.00 0.00 0.00 78 1017.8
20240222005202 20 195 12.9 30.6 0.00 0.00 0.00 78 1017.8
20240222005102 20 186 12.9 30.6 0.00 0.00 0.00 78 1017.8
20240222005002 20 173 16.1 30.6 0.00 0.00 0.00 78 1017.8
20240222004903 20 175 20.9 30.6 0.00 0.00 0.00 78 1017.7
20240222004802 20 175 19.3 30.6 0.00 0.00 0.00 78 1017.8
20240222004703 20 164 16.1 30.6 0.00 0.00 0.00 78 1017.7
20240222004601 20 166 17.7 30.6 0.00 0.00 0.00 78 1017.8
20240222004504 20 190 19.3 30.6 0.00 0.00 0.00 78 1017.8
20240222004402 20 183 19.3 30.6 0.00 0.00 0.00 78 1017.8
20240222004303 20 175 20.9 30.6 0.00 0.00 0.00 78 1017.7
20240222004203 20 158 20.9 30.6 0.00 0.00 0.00 78 1017.7
20240222004103 20 175 19.3 30.6 0.00 0.00 0.00 78 1017.7
20240222004004 20 165 16.1 30.6 0.00 0.00 0.00 78 1017.8
20240222003903 20 212 17.7 30.6 0.00 0.00 0.00 77 1017.8
20240222003803 20 176 20.9 30.6 0.00 0.00 0.00 77 1017.7
20240222003701 20 188 19.3 30.6 0.00 0.00 0.00 77 1017.9
20240222003602 20 179 12.9 27.4 0.00 0.00 0.00 77 1017.8
20240222003505 20 180 11.3 27.4 0.00 0.00 0.00 77 1017.9
20240222003402 21 178 12.9 27.4 0.00 0.00 0.00 77 1017.8
20240222003301 21 197 12.9 27.4 0.00 0.00 0.00 77 1017.7
20240222003203 21 178 14.5 27.4 0.00 0.00 0.00 76 1017.8
20240222003102 21 169 17.7 27.4 0.00 0.00 0.00 76 1017.8
20240222003002 21 172 20.9 27.4 0.00 0.00 0.00 76 1017.8
20240222002902 21 171 20.9 27.4 0.00 0.00 0.00 76 1017.8
20240222002802 21 190 17.7 27.4 0.00 0.00 0.00 76 1017.8
20240222002701 21 165 17.7 27.4 0.00 0.00 0.00 76 1017.9
20240222002602 21 185 17.7 27.4 0.00 0.00 0.00 76 1017.9
20240222002505 21 175 19.3 27.4 0.00 0.00 0.00 75 1017.9
20240222002402 21 178 20.9 27.4 0.00 0.00 0.00 76 1017.9
20240222002306 21 161 19.3 25.7 0.00 0.00 0.00 76 1017.9
20240222002202 21 188 16.1 27.4 0.00 0.00 0.00 76 1017.9
20240222002102 21 140 16.1 30.6 0.00 0.00 0.00 76 1017.8
20240222002003 21 164 17.7 30.6 0.00 0.00 0.00 75 1017.9
20240222001903 21 196 17.7 30.6 0.00 0.00 0.00 75 1017.8
20240222001803 21 169 17.7 32.2 0.00 0.00 0.00 75 1017.9
20240222001702 21 190 17.7 33.8 0.00 0.00 0.00 75 1017.8
20240222001603 21 190 19.3 33.8 0.00 0.00 0.00 75 1017.9
20240222001503 21 179 19.3 33.8 0.00 0.00 0.00 75 1017.9
20240222001403 21 162 19.3 33.8 0.00 0.00 0.00 75 1017.9
20240222001301 21 152 22.5 33.8 0.00 0.00 0.00 75 1017.9
20240222001202 21 176 22.5 33.8 0.00 0.00 0.00 75 1017.9
20240222001102 21 157 22.5 33.8 0.00 0.00 0.00 75 1017.9
20240222001002 21 158 22.5 33.8 0.00 0.00 0.00 75 1017.9
20240222000901 21 168 24.1 33.8 0.00 0.00 0.00 74 1017.9
20240222000803 21 155 22.5 33.8 0.00 0.00 0.00 74 1017.9
20240222000702 21 168 19.3 27.4 0.00 0.00 0.00 74 1017.8
20240222000601 21 182 16.1 27.4 0.00 0.00 0.00 74 1017.9
20240222000502 21 168 16.1 27.4 0.00 0.00 0.00 74 1017.9
20240222000403 21 166 19.3 27.4 0.00 0.00 0.00 74 1017.8
20240222000303 21 197 19.3 27.4 0.00 0.00 0.00 74 1017.8
20240222000204 21 197 17.7 27.4 0.00 0.00 0.00 73 1017.8
20240222000103 21 186 12.9 25.7 0.00 0.00 0.00 73 1017.8
20240222000003 21 161 12.9 25.7 0.00 0.00 0.00 73 1017.8
20240221235901 21 169 17.7 25.7 0.00 0.00 0.00 73 1017.9
20240221235803 21 188 19.3 25.7 0.00 0.00 0.00 73 1017.9
20240221235704 21 176 17.7 25.7 0.00 0.00 0.00 73 1017.9
20240221235602 21 166 17.7 25.7 0.00 0.00 0.00 73 1017.9
20240221235502 21 192 17.7 25.7 0.00 0.00 0.00 73 1017.9
20240221235403 21 185 16.1 27.4 0.00 0.00 0.00 73 1017.9
20240221235305 21 168 16.1 27.4 0.00 0.00 0.00 73 1017.9
20240221235202 21 202 17.7 27.4 0.00 0.00 0.00 73 1017.9
20240221235103 21 200 17.7 27.4 0.00 0.00 0.00 73 1017.8
20240221235002 21 186 14.5 27.4 0.00 0.00 0.00 73 1017.8
20240221234901 21 197 14.5 27.4 0.00 0.00 0.00 72 1017.8
20240221234803 21 180 16.1 27.4 0.00 0.00 0.00 72 1017.8
20240221234703 21 179 16.1 35.4 0.00 0.00 0.00 72 1017.9
20240221234602 21 176 17.7 35.4 0.00 0.00 0.00 72 1017.8
20240221234502 21 188 19.3 35.4 0.00 0.00 0.00 72 1017.8
20240221234403 21 188 16.1 35.4 0.00 0.00 0.00 72 1017.8
20240221234302 21 189 16.1 35.4 0.00 0.00 0.00 72 1017.9
20240221234201 21 188 16.1 35.4 0.00 0.00 0.00 72 1017.8
20240221234102 21 175 16.1 35.4 0.00 0.00 0.00 72 1017.9
20240221234003 21 213 17.7 35.4 0.00 0.00 0.00 72 1017.9
20240221233901 21 189 22.5 35.4 0.00 0.00 0.00 72 1017.8
20240221233801 21 188 24.1 35.4 0.00 0.00 0.00 72 1017.8
20240221233703 21 195 17.7 30.6 0.00 0.00 0.00 72 1017.9
20240221233602 21 202 14.5 30.6 0.00 0.00 0.00 72 1017.8
20240221233502 21 189 12.9 30.6 0.00 0.00 0.00 72 1017.8
20240221233403 21 209 14.5 30.6 0.00 0.00 0.00 71 1017.8
20240221233304 21 183 16.1 30.6 0.00 0.00 0.00 71 1017.8
20240221233202 21 183 17.7 30.6 0.00 0.00 0.00 71 1017.8
20240221233102 21 192 19.3 30.6 0.00 0.00 0.00 71 1017.8
20240221233003 21 182 20.9 30.6 0.00 0.00 0.00 71 1017.7
20240221232902 21 182 20.9 30.6 0.00 0.00 0.00 71 1017.8
20240221232802 21 199 20.9 30.6 0.00 0.00 0.00 71 1017.8
20240221232703 21 185 22.5 30.6 0.00 0.00 0.00 71 1017.9
20240221232602 21 183 22.5 30.6 0.00 0.00 0.00 71 1017.8
20240221232503 21 197 17.7 30.6 0.00 0.00 0.00 71 1017.8
20240221232402 21 193 17.7 30.6 0.00 0.00 0.00 71 1017.8
20240221232305 21 182 20.9 30.6 0.00 0.00 0.00 71 1017.8
20240221232202 21 173 22.5 30.6 0.00 0.00 0.00 71 1017.9
20240221232102 21 171 20.9 30.6 0.00 0.00 0.00 71 1017.8
20240221232003 21 180 20.9 30.6 0.00 0.00 0.00 71 1017.7
20240221231901 21 172 17.7 30.6 0.00 0.00 0.00 71 1017.7
20240221231803 21 162 17.7 30.6 0.00 0.00 0.00 71 1017.8
20240221231703 22 182 17.7 30.6 0.00 0.00 0.00 71 1017.7
20240221231603 22 165 17.7 30.6 0.00 0.00 0.00 71 1017.8
20240221231501 22 195 19.3 30.6 0.00 0.00 0.00 71 1017.7
20240221231402 22 176 19.3 30.6 0.00 0.00 0.00 71 1017.7
20240221231303 22 200 19.3 30.6 0.00 0.00 0.00 71 1017.8
20240221231203 22 176 20.9 30.6 0.00 0.00 0.00 71 1017.8
20240221231102 22 186 19.3 35.4 0.00 0.00 0.00 72 1017.7
20240221231003 22 179 14.5 35.4 0.00 0.00 0.00 72 1017.8
20240221230902 22 189 14.5 35.4 0.00 0.00 0.00 72 1017.8
20240221230802 22 166 14.5 35.4 0.00 0.00 0.00 72 1017.8
20240221230702 22 186 12.9 35.4 0.00 0.00 0.00 72 1017.8
20240221230603 22 196 16.1 35.4 0.00 0.00 0.00 72 1017.8
20240221230502 22 161 20.9 37.0 0.00 0.00 0.00 71 1017.7
20240221230402 22 176 20.9 37.0 0.00 0.00 0.00 71 1017.7
20240221230303 22 179 20.9 37.0 0.00 0.00 0.00 71 1017.7
20240221230202 22 173 22.5 37.0 0.00 0.00 0.00 71 1017.7
20240221230101 22 214 22.5 37.0 0.00 0.00 0.00 71 1017.6
20240221230002 22 175 19.3 37.0 0.00 0.00 0.00 71 1017.6
20240221225903 22 172 19.3 37.0 0.00 0.00 0.00 71 1017.6
20240221225802 22 200 20.9 37.0 0.00 0.00 0.00 71 1017.6
20240221225702 22 206 22.5 37.0 0.00 0.00 0.00 71 1017.6
20240221225602 22 190 22.5 37.0 0.00 0.00 0.00 71 1017.6
20240221225502 22 209 20.9 32.2 0.00 0.00 0.00 71 1017.7
20240221225402 22 206 19.3 32.2 0.00 0.00 0.00 71 1017.6
20240221225306 22 203 19.3 32.2 0.00 0.00 0.00 71 1017.7
20240221225203 22 173 19.3 35.4 0.00 0.00 0.00 71 1017.6
20240221225101 22 185 20.9 35.4 0.00 0.00 0.00 71 1017.6
20240221225002 22 161 22.5 35.4 0.00 0.00 0.00 71 1017.5
20240221224903 22 178 20.9 35.4 0.00 0.00 0.00 71 1017.6
20240221224804 22 147 19.3 35.4 0.00 0.00 0.00 71 1017.5
20240221224701 22 196 20.9 35.4 0.00 0.00 0.00 71 1017.7
20240221224603 22 168 17.7 35.4 0.00 0.00 0.00 71 1017.6
20240221224503 22 165 16.1 35.4 0.00 0.00 0.00 71 1017.7
20240221224403 22 183 20.9 35.4 0.00 0.00 0.00 70 1017.6
20240221224302 22 158 22.5 35.4 0.00 0.00 0.00 70 1017.5
20240221224203 22 182 20.9 35.4 0.00 0.00 0.00 70 1017.6
20240221224101 22 162 22.5 35.4 0.00 0.00 0.00 70 1017.5
20240221224002 22 157 25.7 35.4 0.00 0.00 0.00 70 1017.5
20240221223903 22 175 20.9 35.4 0.00 0.00 0.00 70 1017.5
20240221223802 22 172 19.3 33.8 0.00 0.00 0.00 70 1017.6
20240221223701 22 171 20.9 33.8 0.00 0.00 0.00 70 1017.5
20240221223602 22 164 17.7 33.8 0.00 0.00 0.00 70 1017.5
20240221223503 22 182 20.9 33.8 0.00 0.00 0.00 70 1017.6
20240221223402 22 169 20.9 33.8 0.00 0.00 0.00 70 1017.6
20240221223302 22 164 22.5 33.8 0.00 0.00 0.00 70 1017.6
20240221223204 22 178 20.9 33.8 0.00 0.00 0.00 70 1017.6
20240221223102 22 149 16.1 33.8 0.00 0.00 0.00 70 1017.6
20240221223005 22 162 19.3 33.8 0.00 0.00 0.00 70 1017.7
20240221222904 22 183 22.5 33.8 0.00 0.00 0.00 70 1017.6
20240221222803 23 183 22.5 33.8 0.00 0.00 0.00 70 1017.6
20240221222702 23 188 20.9 33.8 0.00 0.00 0.00 70 1017.7
20240221222602 23 166 20.9 32.2 0.00 0.00 0.00 70 1017.7
20240221222503 23 158 20.9 32.2 0.00 0.00 0.00 70 1017.7
20240221222402 23 168 20.9 29.0 0.00 0.00 0.00 70 1017.8
20240221222301 23 165 20.9 29.0 0.00 0.00 0.00 69 1017.8
20240221222204 23 173 20.9 27.4 0.00 0.00 0.00 69 1017.8
20240221222103 23 159 17.7 27.4 0.00 0.00 0.00 69 1017.6
20240221222002 23 137 17.7 27.4 0.00 0.00 0.00 69 1017.6
20240221221902 23 173 17.7 27.4 0.00 0.00 0.00 69 1017.6
20240221221802 23 182 14.5 35.4 0.00 0.00 0.00 69 1017.7
20240221221701 23 189 14.5 35.4 0.00 0.00 0.00 69 1017.7
20240221221559 23 152 16.1 35.4 0.00 0.00 0.00 69 1017.7
20240221221458 23 169 14.5 35.4 0.00 0.00 0.00 69 1017.7
20240221221357 23 171 11.3 35.4 0.00 0.00 0.00 69 1017.7
20240221221253 23 164 11.3 35.4 0.00 0.00 0.00 69 1017.7
20240221221152 23 131 14.5 35.4 0.00 0.00 0.00 69 1017.8
20240221221052 23 162 20.9 35.4 0.00 0.00 0.00 68 1017.8
20240221220950 23 175 22.5 35.4 0.00 0.00 0.00 68 1017.7
20240221220849 23 176 19.3 35.4 0.00 0.00 0.00 68 1017.8
20240221220747 23 165 17.7 30.6 0.00 0.00 0.00 68 1017.7
20240221220645 23 190 19.3 30.6 0.00 0.00 0.00 68 1017.7
20240221220544 23 182 19.3 32.2 0.00 0.00 0.00 68 1017.8
20240221220440 23 152 16.1 32.2 0.00 0.00 0.00 68 1017.8
20240221220338 23 182 14.5 32.2 0.00 0.00 0.00 68 1017.7
20240221220236 23 175 16.1 32.2 0.00 0.00 0.00 68 1017.8
20240221220135 23 185 17.7 32.2 0.00 0.00 0.00 68 1017.7
20240221220036 23 206 22.5 32.2 0.00 0.00 0.00 68 1017.7
20240221215935 23 182 22.5 32.2 0.00 0.00 0.00 68 1017.8
20240221215837 23 169 20.9 32.2 0.00 0.00 0.00 68 1017.9
20240221215736 23 197 20.9 32.2 0.00 0.00 0.00 68 1017.9
20240221215637 23 188 19.3 32.2 0.00 0.00 0.00 68 1017.8
20240221215536 23 179 17.7 32.2 0.00 0.00 0.00 67 1017.9
20240221215436 23 175 22.5 32.2 0.00 0.00 0.00 67 1017.9
20240221215337 24 171 24.1 32.2 0.00 0.00 0.00 67 1017.9
20240221215235 24 165 17.7 32.2 0.00 0.00 0.00 68 1018.0
20240221215136 24 204 12.9 25.7 0.00 0.00 0.00 68 1018.0
20240221215035 24 159 14.5 27.4 0.00 0.00 0.00 68 1017.9
20240221214937 24 161 14.5 27.4 0.00 0.00 0.00 68 1018.0
20240221214835 24 164 12.9 27.4 0.00 0.00 0.00 68 1018.0
20240221214735 24 162 12.9 27.4 0.00 0.00 0.00 68 1018.0
20240221214636 23 182 14.5 27.4 0.00 0.00 0.00 68 1018.0
20240221214536 23 152 14.5 32.2 0.00 0.00 0.00 68 1017.9
20240221214435 23 162 14.5 32.2 0.00 0.00 0.00 68 1018.0
20240221214335 23 206 14.5 32.2 0.00 0.00 0.00 68 1017.9
20240221214236 23 171 14.5 32.2 0.00 0.00 0.00 68 1017.9
20240221214135 23 164 16.1 32.2 0.00 0.00 0.00 68 1018.1
20240221214036 23 161 16.1 32.2 0.00 0.00 0.00 68 1018.1
20240221213936 23 152 14.5 32.2 0.00 0.00 0.00 68 1018.0
20240221213835 23 128 16.1 35.4 0.00 0.00 0.00 68 1018.0
20240221213735 23 164 22.5 35.4 0.00 0.00 0.00 68 1018.0
20240221213635 23 179 20.9 35.4 0.00 0.00 0.00 68 1018.0
20240221213536 23 175 17.7 35.4 0.00 0.00 0.00 68 1018.1
20240221213435 23 166 14.5 35.4 0.00 0.00 0.00 68 1018.1
20240221213335 23 188 17.7 35.4 0.00 0.00 0.00 68 1018.1
20240221213236 23 183 19.3 35.4 0.00 0.00 0.00 67 1018.2
20240221213134 23 173 16.1 35.4 0.00 0.00 0.00 68 1018.2
20240221213035 23 168 20.9 35.4 0.00 0.00 0.00 67 1018.2
20240221212936 24 180 24.1 35.4 0.00 0.00 0.00 67 1018.2
20240221212836 24 141 20.9 32.2 0.00 0.00 0.00 67 1018.2
20240221212735 24 179 19.3 32.2 0.00 0.00 0.00 67 1018.2
20240221212634 24 176 19.3 32.2 0.00 0.00 0.00 68 1018.2
20240221212537 24 165 20.9 29.0 0.00 0.00 0.00 68 1018.2
20240221212436 24 197 17.7 29.0 0.00 0.00 0.00 68 1018.2
20240221212335 23 161 14.5 29.0 0.00 0.00 0.00 68 1018.2
20240221212237 23 158 16.1 32.2 0.00 0.00 0.00 69 1018.3
20240221212135 23 155 16.1 32.2 0.00 0.00 0.00 68 1018.4
20240221212034 23 164 16.1 33.8 0.00 0.00 0.00 68 1018.4
20240221211934 23 158 16.1 33.8 0.00 0.00 0.00 68 1018.4
20240221211835 23 151 14.5 33.8 0.00 0.00 0.00 68 1018.4
20240221211735 23 161 14.5 33.8 0.00 0.00 0.00 68 1018.3
20240221211634 23 185 17.7 33.8 0.00 0.00 0.00 68 1018.4
20240221211534 23 141 19.3 33.8 0.00 0.00 0.00 68 1018.3
20240221211435 24 155 17.7 33.8 0.00 0.00 0.00 68 1018.5
20240221211335 24 182 20.9 33.8 0.00 0.00 0.00 68 1018.5
20240221211234 24 161 24.1 33.8 0.00 0.00 0.00 67 1018.5
20240221211135 24 199 19.3 33.8 0.00 0.00 0.00 67 1018.5
20240221211034 24 193 17.7 33.8 0.00 0.00 0.00 67 1018.6
20240221210934 24 171 19.3 33.8 0.00 0.00 0.00 67 1018.5
20240221210835 24 164 20.9 33.8 0.00 0.00 0.00 67 1018.5
20240221210734 24 165 20.9 33.8 0.00 0.00 0.00 67 1018.6
20240221210634 24 173 22.5 33.8 0.00 0.00 0.00 67 1018.6
20240221210534 24 152 19.3 37.0 0.00 0.00 0.00 67 1018.6
20240221210435 24 175 14.5 37.0 0.00 0.00 0.00 67 1018.6
20240221210334 24 172 16.1 37.0 0.00 0.00 0.00 67 1018.6
20240221210234 24 180 19.3 37.0 0.00 0.00 0.00 68 1018.7
20240221210135 24 162 20.9 37.0 0.00 0.00 0.00 68 1018.6
20240221210035 24 166 20.9 37.0 0.00 0.00 0.00 68 1018.7
20240221205934 24 171 19.3 37.0 0.00 0.00 0.00 67 1018.8
20240221205834 24 182 20.9 37.0 0.00 0.00 0.00 67 1018.7
20240221205736 24 188 25.7 37.0 0.00 0.00 0.00 67 1018.8
20240221205634 24 178 24.1 37.0 0.00 0.00 0.00 67 1018.8
20240221205534 24 195 14.5 35.4 0.00 0.00 0.00 67 1018.8
20240221205435 24 158 16.1 35.4 0.00 0.00 0.00 67 1018.8
20240221205335 24 183 19.3 35.4 0.00 0.00 0.00 67 1018.9
20240221205235 24 161 22.5 35.4 0.00 0.00 0.00 67 1018.8
20240221205134 24 182 20.9 35.4 0.00 0.00 0.00 67 1019.0
20240221205035 24 168 17.7 35.4 0.00 0.00 0.00 67 1018.9
20240221204933 24 151 17.7 35.4 0.00 0.00 0.00 67 1018.9
20240221204834 24 158 20.9 35.4 0.00 0.00 0.00 67 1018.9
20240221204735 24 166 20.9 35.4 0.00 0.00 0.00 67 1018.9
20240221204634 24 185 17.7 35.4 0.00 0.00 0.00 67 1018.9
20240221204534 24 172 20.9 35.4 0.00 0.00 0.00 67 1019.0
20240221204435 24 188 22.5 35.4 0.00 0.00 0.00 67 1019.0
20240221204334 24 161 24.1 35.4 0.00 0.00 0.00 67 1019.1
20240221204234 24 186 20.9 33.8 0.00 0.00 0.00 67 1019.0
20240221204134 24 161 17.7 33.8 0.00 0.00 0.00 68 1019.1
20240221204034 24 176 19.3 30.6 0.00 0.00 0.00 68 1019.1
20240221203933 24 176 19.3 30.6 0.00 0.00 0.00 68 1019.1
20240221203835 24 190 17.7 30.6 0.00 0.00 0.00 68 1019.1
20240221203733 24 189 14.5 32.2 0.00 0.00 0.00 69 1019.1
20240221203634 24 197 12.9 32.2 0.00 0.00 0.00 68 1019.1
20240221203534 23 200 17.7 32.2 0.00 0.00 0.00 68 1019.1
20240221203433 23 151 19.3 32.2 0.00 0.00 0.00 68 1019.1
20240221203335 23 168 17.7 32.2 0.00 0.00 0.00 68 1019.2
20240221203234 23 176 19.3 32.2 0.00 0.00 0.00 68 1019.1
20240221203133 24 165 19.3 32.2 0.00 0.00 0.00 68 1019.1
20240221203033 24 123 20.9 32.2 0.00 0.00 0.00 68 1019.1
20240221202934 24 151 22.5 32.2 0.00 0.00 0.00 68 1019.2
20240221202834 24 178 20.9 32.2 0.00 0.00 0.00 68 1019.2
20240221202732 24 162 20.9 32.2 0.00 0.00 0.00 68 1019.3
20240221202630 24 165 24.1 32.2 0.00 0.00 0.00 68 1019.4
20240221202532 24 144 20.9 32.2 0.00 0.00 0.00 68 1019.4
20240221202432 24 157 19.3 32.2 0.00 0.00 0.00 68 1019.4
20240221202331 24 179 17.7 32.2 0.00 0.00 0.00 67 1019.4
20240221202230 24 224 19.3 32.2 0.00 0.00 0.00 67 1019.4
20240221202132 24 190 20.9 33.8 0.00 0.00 0.00 68 1019.4
20240221202031 24 185 19.3 33.8 0.00 0.00 0.00 68 1019.4
20240221201931 24 204 17.7 33.8 0.00 0.00 0.00 68 1019.4
20240221201833 24 192 14.5 33.8 0.00 0.00 0.00 68 1019.3
20240221201731 24 172 17.7 33.8 0.00 0.00 0.00 68 1019.4
20240221201631 24 196 19.3 33.8 0.00 0.00 0.00 68 1019.5
20240221201531 24 193 20.9 38.6 0.00 0.00 0.00 68 1019.5
20240221201433 24 175 22.5 38.6 0.00 0.00 0.00 68 1019.5
20240221201331 24 164 22.5 38.6 0.00 0.00 0.00 67 1019.5
20240221201230 24 162 24.1 38.6 0.00 0.00 0.00 67 1019.5
20240221201131 24 192 22.5 38.6 0.00 0.00 0.00 67 1019.6
20240221201031 24 165 19.3 38.6 0.00 0.00 0.00 68 1019.4
20240221200929 24 179 17.7 38.6 0.00 0.00 0.00 68 1019.6
20240221200827 24 171 20.9 38.6 0.00 0.00 0.00 68 1019.6
20240221200726 24 185 24.1 38.6 0.00 0.00 0.00 68 1019.6
20240221200625 24 176 22.5 38.6 0.00 0.00 0.00 68 1019.6
20240221200523 24 179 19.3 35.4 0.00 0.00 0.00 69 1019.6
20240221200421 24 179 19.3 41.8 0.00 0.00 0.00 69 1019.6
20240221200320 23 182 19.3 41.8 0.00 0.00 0.00 69 1019.6
20240221200220 23 180 17.7 41.8 0.00 0.00 0.00 69 1019.6
20240221200118 23 155 20.9 41.8 0.00 0.00 0.00 69 1019.6
20240221200016 23 171 24.1 41.8 0.00 0.00 0.00 68 1019.7
20240221195914 24 178 24.1 41.8 0.00 0.00 0.00 68 1019.7
20240221195813 24 178 24.1 41.8 0.00 0.00 0.00 68 1019.8
20240221195712 24 172 27.4 41.8 0.00 0.00 0.00 68 1019.8
20240221195609 24 185 27.4 41.8 0.00 0.00 0.00 68 1019.8
20240221195509 24 182 19.3 41.8 0.00 0.00 0.00 68 1019.9
20240221195403 24 175 14.5 32.2 0.00 0.00 0.00 67 1019.9
20240221195305 24 192 20.9 33.8 0.00 0.00 0.00 67 1019.8
20240221195203 24 185 22.5 33.8 0.00 0.00 0.00 67 1019.8
20240221195102 24 178 20.9 33.8 0.00 0.00 0.00 68 1019.8
20240221195002 24 166 20.9 33.8 0.00 0.00 0.00 68 1019.8
20240221194903 24 158 20.9 33.8 0.00 0.00 0.00 68 1019.9
20240221194804 24 172 22.5 33.8 0.00 0.00 0.00 68 1019.9
20240221194702 24 162 22.5 33.8 0.00 0.00 0.00 68 1019.9
20240221194602 24 178 20.9 33.8 0.00 0.00 0.00 68 1020.0
20240221194504 24 186 20.9 33.8 0.00 0.00 0.00 68 1019.9
20240221194402 24 186 20.9 33.8 0.00 0.00 0.00 67 1020.0
20240221194301 24 175 16.1 27.4 0.00 0.00 0.00 68 1020.0
20240221194202 24 169 14.5 33.8 0.00 0.00 0.00 68 1020.0
20240221194102 24 192 17.7 33.8 0.00 0.00 0.00 67 1020.0
20240221194003 24 175 17.7 33.8 0.00 0.00 0.00 68 1020.1
20240221193902 24 178 14.5 33.8 0.00 0.00 0.00 68 1020.1
20240221193804 24 169 17.7 33.8 0.00 0.00 0.00 68 1020.0
20240221193702 24 164 19.3 33.8 0.00 0.00 0.00 67 1020.0
20240221193601 24 159 17.7 33.8 0.00 0.00 0.00 68 1020.1
20240221193502 24 152 17.7 33.8 0.00 0.00 0.00 68 1020.0
20240221193403 24 133 20.9 33.8 0.00 0.00 0.00 67 1020.0
20240221193302 24 158 19.3 33.8 0.00 0.00 0.00 67 1020.1
20240221193202 24 155 17.7 30.6 0.00 0.00 0.00 67 1020.1
20240221193103 24 168 19.3 30.6 0.00 0.00 0.00 67 1020.1
20240221193003 24 164 17.7 30.6 0.00 0.00 0.00 67 1020.2
20240221192902 24 185 17.7 29.0 0.00 0.00 0.00 67 1020.2
20240221192803 24 180 16.1 29.0 0.00 0.00 0.00 67 1020.2
20240221192703 24 118 16.1 29.0 0.00 0.00 0.00 67 1020.2
20240221192602 24 125 16.1 29.0 0.00 0.00 0.00 67 1020.1
20240221192501 24 172 19.3 29.0 0.00 0.00 0.00 67 1020.3
20240221192403 24 183 19.3 29.0 0.00 0.00 0.00 67 1020.3
20240221192305 24 76 19.3 29.0 0.00 0.00 0.00 67 1020.3
20240221192202 24 157 20.9 29.0 0.00 0.00 0.00 67 1020.4
20240221192103 24 203 20.9 29.0 0.00 0.00 0.00 67 1020.5
20240221192003 24 175 17.7 27.4 0.00 0.00 0.00 68 1020.4
20240221191902 24 171 12.9 27.4 0.00 0.00 0.00 68 1020.4
20240221191802 24 165 14.5 27.4 0.00 0.00 0.00 67 1020.4
20240221191704 24 161 17.7 27.4 0.00 0.00 0.00 67 1020.4
20240221191601 24 200 20.9 27.4 0.00 0.00 0.00 67 1020.5
20240221191502 24 195 19.3 27.4 0.00 0.00 0.00 67 1020.4
20240221191403 24 162 16.1 27.4 0.00 0.00 0.00 67 1020.6
20240221191302 24 110 17.7 27.4 0.00 0.00 0.00 67 1020.6
20240221191203 24 179 17.7 27.4 0.00 0.00 0.00 67 1020.6
20240221191103 24 148 17.7 27.4 0.00 0.00 0.00 67 1020.7
20240221191004 24 195 16.1 25.7 0.00 0.00 0.00 67 1020.6
20240221190904 24 165 16.1 25.7 0.00 0.00 0.00 67 1020.7
20240221190802 24 162 16.1 25.7 0.00 0.00 0.00 67 1020.8
20240221190703 24 165 16.1 27.4 0.00 0.00 0.00 67 1020.7
20240221190602 24 197 16.1 27.4 0.00 0.00 0.00 68 1020.7
20240221190502 24 192 16.1 27.4 0.00 0.00 0.00 68 1020.8
20240221190403 24 212 19.3 27.4 0.00 0.00 0.00 68 1020.8
20240221190302 24 179 16.1 27.4 0.00 0.00 0.00 68 1020.8
20240221190202 24 189 14.5 27.4 0.00 0.00 0.00 68 1021.0
20240221190101 24 196 16.1 27.4 0.00 0.00 0.00 68 1021.0
20240221190004 24 165 17.7 27.4 0.00 0.00 0.00 68 1021.0
20240221185902 24 197 19.3 27.4 0.00 0.00 0.00 68 1021.0
20240221185802 24 152 19.3 27.4 0.00 0.00 0.00 68 1021.0
20240221185704 24 164 14.5 32.2 0.00 0.00 0.00 68 1021.0
20240221185602 24 154 16.1 32.2 0.00 0.00 0.00 68 1021.0
20240221185502 24 185 14.5 32.2 0.00 0.00 0.00 68 1021.0
20240221185402 23 161 16.1 32.2 0.00 0.00 0.00 68 1021.1
20240221185305 23 172 17.7 32.2 0.00 0.00 0.00 68 1021.1
20240221185202 24 178 20.9 32.2 0.00 0.00 0.00 68 1021.1
20240221185102 24 196 20.9 32.2 0.00 0.00 0.00 68 1021.2
20240221185002 24 195 19.3 32.2 0.00 0.00 0.00 67 1021.1
20240221184903 24 186 20.9 32.2 0.00 0.00 0.00 67 1021.3
20240221184802 24 192 22.5 32.2 0.00 0.00 0.00 67 1021.3
20240221184703 23 189 17.7 30.6 0.00 0.00 0.00 68 1021.3
20240221184603 23 178 16.1 30.6 0.00 0.00 0.00 68 1021.4
20240221184503 23 148 16.1 30.6 0.00 0.00 0.00 69 1021.3
20240221184402 23 213 16.1 30.6 0.00 0.00 0.00 69 1021.4
20240221184303 23 155 16.1 30.6 0.00 0.00 0.00 69 1021.4
20240221184203 23 161 16.1 30.6 0.00 0.00 0.00 69 1021.4
20240221184102 23 224 14.5 30.6 0.00 0.00 0.00 69 1021.4
20240221184002 23 164 19.3 30.6 0.00 0.00 0.00 68 1021.4
20240221183902 23 183 24.1 30.6 0.00 0.00 0.00 68 1021.4
20240221183803 23 183 24.1 30.6 0.00 0.00 0.00 68 1021.5
20240221183702 23 207 20.9 29.0 0.00 0.00 0.00 68 1021.5
20240221183603 23 189 17.7 27.4 0.00 0.00 0.00 68 1021.4
20240221183502 23 202 17.7 27.4 0.00 0.00 0.00 68 1021.5
20240221183402 23 220 19.3 27.4 0.00 0.00 0.00 69 1021.5
20240221183303 23 176 19.3 29.0 0.00 0.00 0.00 68 1021.6
20240221183203 23 158 19.3 29.0 0.00 0.00 0.00 69 1021.6
20240221183102 23 183 17.7 29.0 0.00 0.00 0.00 69 1021.6
20240221183003 23 171 17.7 29.0 0.00 0.00 0.00 69 1021.7
20240221182904 23 161 19.3 29.0 0.00 0.00 0.00 69 1021.6
20240221182802 23 165 17.7 32.2 0.00 0.00 0.00 69 1021.7
20240221182702 23 189 17.7 32.2 0.00 0.00 0.00 69 1021.8
20240221182604 23 152 20.9 32.2 0.00 0.00 0.00 69 1021.7
20240221182502 23 168 19.3 32.2 0.00 0.00 0.00 68 1021.8
20240221182402 23 213 17.7 32.2 0.00 0.00 0.00 69 1021.8
20240221182305 23 190 17.7 32.2 0.00 0.00 0.00 68 1021.7
20240221182202 23 157 19.3 32.2 0.00 0.00 0.00 69 1021.8
20240221182102 23 178 20.9 32.2 0.00 0.00 0.00 69 1021.9
20240221182002 23 178 22.5 32.2 0.00 0.00 0.00 68 1021.9
20240221181903 23 165 19.3 32.2 0.00 0.00 0.00 69 1021.9
20240221181802 23 162 19.3 29.0 0.00 0.00 0.00 69 1022.0
20240221181702 23 175 19.3 29.0 0.00 0.00 0.00 69 1022.1
20240221181604 23 144 17.7 29.0 0.00 0.00 0.00 69 1022.1
20240221181503 23 186 20.9 29.0 0.00 0.00 0.00 69 1022.1
20240221181402 23 188 20.9 29.0 0.00 0.00 0.00 69 1022.1
20240221181302 23 179 19.3 29.0 0.00 0.00 0.00 69 1022.1
20240221181202 23 172 19.3 29.0 0.00 0.00 0.00 69 1022.1
20240221181103 23 183 19.3 29.0 0.00 0.00 0.00 69 1022.1
20240221181002 23 149 19.3 29.0 0.00 0.00 0.00 69 1022.1
20240221180903 23 200 17.7 29.0 0.00 0.00 0.00 70 1022.1
20240221180802 23 196 14.5 29.0 0.00 0.00 0.00 70 1022.1
20240221180702 23 192 14.5 29.0 0.00 0.00 0.00 70 1022.2
20240221180604 23 185 14.5 30.6 0.00 0.00 0.00 70 1022.2
20240221180503 23 155 16.1 30.6 0.00 0.00 0.00 70 1022.2
20240221180402 23 148 19.3 30.6 0.00 0.00 0.00 70 1022.3
20240221180302 23 155 19.3 30.6 0.00 0.00 0.00 70 1022.4
20240221180202 23 159 16.1 30.6 0.00 0.00 0.00 70 1022.4
20240221180103 23 168 14.5 30.6 0.00 0.00 0.00 70 1022.3
20240221180003 23 192 12.9 30.6 0.00 0.00 0.00 70 1022.4
20240221175903 23 202 16.1 30.6 0.00 0.00 0.00 70 1022.4
20240221175802 23 197 20.9 30.6 0.00 0.00 0.00 69 1022.4
20240221175701 23 214 22.5 30.6 0.00 0.00 0.00 69 1022.5
20240221175602 23 209 20.9 30.6 0.00 0.00 0.00 69 1022.5
20240221175504 23 195 19.3 30.6 0.00 0.00 0.00 69 1022.5
20240221175402 23 192 17.7 29.0 0.00 0.00 0.00 69 1022.5
20240221175306 23 180 17.7 27.4 0.00 0.00 0.00 69 1022.5
20240221175203 23 183 17.7 27.4 0.00 0.00 0.00 70 1022.5
20240221175102 23 166 19.3 27.4 0.00 0.00 0.00 70 1022.6
20240221175003 23 166 17.7 27.4 0.00 0.00 0.00 70 1022.4
20240221174903 23 206 17.7 27.4 0.00 0.00 0.00 70 1022.5
20240221174803 23 195 17.7 27.4 0.00 0.00 0.00 69 1022.6
20240221174703 23 169 16.1 27.4 0.00 0.00 0.00 70 1022.6
20240221174605 23 193 17.7 29.0 0.00 0.00 0.00 70 1022.6
20240221174504 23 171 19.3 29.0 0.00 0.00 0.00 70 1022.6
20240221174401 23 186 20.9 29.0 0.00 0.00 0.00 69 1022.5
20240221174302 23 148 17.7 29.0 0.00 0.00 0.00 70 1022.6
20240221174203 23 149 16.1 29.0 0.00 0.00 0.00 70 1022.6
20240221174102 23 157 16.1 29.0 0.00 0.00 0.00 70 1022.6
20240221174003 23 168 17.7 29.0 0.00 0.00 0.00 70 1022.6
20240221173902 23 176 19.3 29.0 0.00 0.00 0.00 70 1022.6
20240221173803 23 169 20.9 29.0 0.00 0.00 0.00 70 1022.6
20240221173701 23 175 19.3 29.0 0.00 0.00 0.00 71 1022.6
20240221173602 23 204 14.5 25.7 0.00 0.00 0.00 71 1022.6
20240221173505 23 182 16.1 25.7 0.00 0.00 0.00 71 1022.5
20240221173403 23 165 16.1 25.7 0.00 0.00 0.00 71 1022.6
20240221173302 23 155 16.1 25.7 0.00 0.00 0.00 72 1022.6
20240221173201 23 179 17.7 30.6 0.00 0.00 0.00 71 1022.6
20240221173102 23 196 16.1 30.6 0.00 0.00 0.00 72 1022.6
20240221173003 22 192 16.1 30.6 0.00 0.00 0.00 72 1022.7
20240221172904 22 192 16.1 30.6 0.00 0.00 0.00 72 1022.7
20240221172803 22 192 16.1 30.6 0.00 0.00 0.00 72 1022.6
20240221172702 22 172 16.1 30.6 0.00 0.00 0.00 72 1022.6
20240221172602 22 157 16.1 30.6 0.00 0.00 0.00 72 1022.7
20240221172503 22 185 19.3 30.6 0.00 0.00 0.00 72 1022.7
20240221172403 22 183 22.5 30.6 0.00 0.00 0.00 72 1022.8
20240221172305 22 182 19.3 30.6 0.00 0.00 0.00 73 1022.7
20240221172203 22 202 14.5 29.0 0.00 0.00 0.00 73 1022.7
20240221172102 22 182 14.5 29.0 0.00 0.00 0.00 73 1022.6
20240221172002 22 195 16.1 29.0 0.00 0.00 0.00 73 1022.7
20240221171902 22 210 17.7 29.0 0.00 0.00 0.00 73 1022.6
20240221171803 22 165 20.9 29.0 0.00 0.00 0.00 73 1022.7
20240221171703 22 188 20.9 30.6 0.00 0.00 0.00 73 1022.7
20240221171602 22 186 19.3 30.6 0.00 0.00 0.00 73 1022.7
20240221171502 22 180 19.3 30.6 0.00 0.00 0.00 73 1022.8
20240221171403 22 216 19.3 30.6 0.00 0.00 0.00 73 1022.8
20240221171302 22 186 17.7 30.6 0.00 0.00 0.00 73 1022.8
20240221171202 22 185 19.3 30.6 0.00 0.00 0.00 73 1022.8
20240221171103 22 204 17.7 30.6 0.00 0.00 0.00 73 1022.9
20240221171003 22 173 16.1 30.6 0.00 0.00 0.00 73 1022.8
20240221170903 22 190 20.9 30.6 0.00 0.00 0.00 73 1022.8
20240221170804 22 190 20.9 32.2 0.00 0.00 0.00 73 1022.8
20240221170703 22 190 19.3 32.2 0.00 0.00 0.00 72 1022.8
20240221170601 22 154 16.1 32.2 0.00 0.00 0.00 73 1022.9
20240221170502 22 210 14.5 32.2 0.00 0.00 0.00 73 1022.8
20240221170401 22 186 17.7 32.2 0.00 0.00 0.00 73 1022.8
20240221170303 22 183 20.9 32.2 0.00 0.00 0.00 72 1022.9
20240221170202 22 179 22.5 32.2 0.00 0.00 0.00 72 1022.9
20240221170103 22 179 22.5 32.2 0.00 0.00 0.00 72 1022.9
20240221170004 22 189 22.5 32.2 0.00 0.00 0.00 73 1023.0
20240221165902 22 186 17.7 32.2 0.00 0.00 0.00 74 1022.9
20240221165803 22 158 12.9 30.6 0.00 0.00 0.00 74 1023.0
20240221165704 22 193 14.5 30.6 0.00 0.00 0.00 73 1023.0
20240221165602 22 179 17.7 30.6 0.00 0.00 0.00 73 1023.0
20240221165502 22 204 20.9 30.6 0.00 0.00 0.00 73 1023.0
20240221165403 22 186 20.9 32.2 0.00 0.00 0.00 73 1023.0
20240221165305 22 217 16.1 32.2 0.00 0.00 0.00 74 1023.1
20240221165202 22 172 11.3 32.2 0.00 0.00 0.00 73 1023.1
20240221165101 22 195 16.1 32.2 0.00 0.00 0.00 73 1023.1
20240221165003 22 169 17.7 32.2 0.00 0.00 0.00 73 1023.0
20240221164903 22 165 16.1 32.2 0.00 0.00 0.00 73 1023.1
20240221164803 22 172 17.7 32.2 0.00 0.00 0.00 73 1023.0
20240221164703 22 188 20.9 32.2 0.00 0.00 0.00 73 1023.0
20240221164602 22 195 17.7 32.2 0.00 0.00 0.00 74 1023.0
20240221164504 22 183 14.5 32.2 0.00 0.00 0.00 74 1023.0
20240221164405 22 152 12.9 27.4 0.00 0.00 0.00 74 1023.0
20240221164302 22 179 17.7 27.4 0.00 0.00 0.00 74 1023.1
20240221164203 22 202 17.7 27.4 0.00 0.00 0.00 74 1023.0
20240221164102 22 212 17.7 27.4 0.00 0.00 0.00 74 1023.0
20240221164004 22 182 19.3 29.0 0.00 0.00 0.00 74 1023.1
20240221163902 22 179 17.7 29.0 0.00 0.00 0.00 75 1023.1
20240221163802 22 188 16.1 29.0 0.00 0.00 0.00 75 1023.0
20240221163703 22 159 16.1 29.0 0.00 0.00 0.00 75 1023.1
20240221163604 22 188 19.3 29.0 0.00 0.00 0.00 75 1023.1
20240221163503 22 154 20.9 29.0 0.00 0.00 0.00 75 1023.1
20240221163402 22 158 17.7 29.0 0.00 0.00 0.00 75 1023.1
20240221163303 22 188 17.7 29.0 0.00 0.00 0.00 75 1023.1
20240221163202 22 197 20.9 29.0 0.00 0.00 0.00 75 1023.1
20240221163103 22 186 19.3 29.0 0.00 0.00 0.00 75 1023.1
20240221163003 22 186 17.7 25.7 0.00 0.00 0.00 76 1023.1
20240221162902 22 196 16.1 25.7 0.00 0.00 0.00 75 1023.0
20240221162801 22 162 14.5 25.7 0.00 0.00 0.00 75 1023.0
20240221162703 22 172 17.7 32.2 0.00 0.00 0.00 76 1023.0
20240221162602 21 166 17.7 32.2 0.00 0.00 0.00 76 1023.0
20240221162502 21 144 16.1 32.2 0.00 0.00 0.00 76 1023.0
20240221162403 21 168 14.5 32.2 0.00 0.00 0.00 77 1023.0
20240221162305 21 195 14.5 32.2 0.00 0.00 0.00 77 1023.0
20240221162202 21 172 12.9 32.2 0.00 0.00 0.00 77 1023.0
20240221162103 21 189 12.9 32.2 0.00 0.00 0.00 77 1023.1
20240221162004 21 196 17.7 32.2 0.00 0.00 0.00 77 1023.1
20240221161902 21 182 22.5 32.2 0.00 0.00 0.00 76 1023.0
20240221161802 21 173 24.1 32.2 0.00 0.00 0.00 76 1023.0
20240221161702 21 193 24.1 32.2 0.00 0.00 0.00 76 1023.0
20240221161603 21 172 22.5 32.2 0.00 0.00 0.00 77 1023.0
20240221161502 21 193 19.3 32.2 0.00 0.00 0.00 77 1023.0
20240221161403 21 157 17.7 32.2 0.00 0.00 0.00 77 1023.0
20240221161303 21 176 20.9 32.2 0.00 0.00 0.00 77 1023.0
20240221161202 21 202 20.9 32.2 0.00 0.00 0.00 77 1023.0
20240221161104 21 214 20.9 32.2 0.00 0.00 0.00 77 1023.1
20240221161002 21 199 22.5 32.2 0.00 0.00 0.00 77 1023.1
20240221160902 21 204 22.5 32.2 0.00 0.00 0.00 77 1023.1
20240221160802 21 176 17.7 32.2 0.00 0.00 0.00 77 1023.1
20240221160702 21 176 19.3 32.2 0.00 0.00 0.00 77 1023.1
20240221160603 21 183 20.9 32.2 0.00 0.00 0.00 77 1023.1
20240221160502 21 166 20.9 32.2 0.00 0.00 0.00 77 1023.2
20240221160402 21 203 19.3 32.2 0.00 0.00 0.00 77 1023.1
20240221160303 21 200 19.3 32.2 0.00 0.00 0.00 77 1023.1
20240221160203 21 182 20.9 32.2 0.00 0.00 0.00 77 1023.1
20240221160103 21 166 22.5 32.2 0.00 0.00 0.00 78 1023.1
20240221160002 21 202 20.9 32.2 0.00 0.00 0.00 78 1023.1
20240221155904 21 179 20.9 33.8 0.00 0.00 0.00 78 1023.1
20240221155802 21 192 19.3 33.8 0.00 0.00 0.00 78 1023.1
20240221155701 21 210 19.3 35.4 0.00 0.00 0.00 78 1023.1
20240221155603 21 171 20.9 35.4 0.00 0.00 0.00 78 1023.1
20240221155503 21 219 19.3 35.4 0.00 0.00 0.00 78 1023.1
20240221155402 21 186 17.7 35.4 0.00 0.00 0.00 78 1023.2
20240221155306 21 193 20.9 35.4 0.00 0.00 0.00 78 1023.2
20240221155204 21 196 22.5 35.4 0.00 0.00 0.00 78 1023.2
20240221155102 21 178 22.5 35.4 0.00 0.00 0.00 78 1023.3
20240221155001 21 196 24.1 35.4 0.00 0.00 0.00 78 1023.2
20240221154904 21 186 25.7 35.4 0.00 0.00 0.00 78 1023.3
20240221154803 21 202 24.1 35.4 0.00 0.00 0.00 79 1023.3
20240221154701 21 213 19.3 32.2 0.00 0.00 0.00 79 1023.2
20240221154602 21 193 19.3 32.2 0.00 0.00 0.00 79 1023.3
20240221154503 20 179 17.7 32.2 0.00 0.00 0.00 79 1023.2
20240221154402 20 182 19.3 32.2 0.00 0.00 0.00 79 1023.2
20240221154303 20 173 22.5 32.2 0.00 0.00 0.00 79 1023.3
20240221154204 20 195 22.5 32.2 0.00 0.00 0.00 79 1023.2
20240221154102 20 197 19.3 32.2 0.00 0.00 0.00 79 1023.2
20240221154002 20 192 19.3 35.4 0.00 0.00 0.00 79 1023.3
20240221153904 20 180 20.9 37.0 0.00 0.00 0.00 79 1023.3
20240221153801 20 175 20.9 37.0 0.00 0.00 0.00 79 1023.4
20240221153702 20 186 22.5 37.0 0.00 0.00 0.00 79 1023.3
20240221153602 20 189 20.9 37.0 0.00 0.00 0.00 79 1023.3
20240221153502 20 183 22.5 37.0 0.00 0.00 0.00 79 1023.3
20240221153403 20 185 20.9 37.0 0.00 0.00 0.00 79 1023.3
20240221153302 20 169 17.7 37.0 0.00 0.00 0.00 79 1023.3
20240221153204 20 220 22.5 37.0 0.00 0.00 0.00 79 1023.3
20240221153103 20 186 25.7 37.0 0.00 0.00 0.00 79 1023.3
20240221153003 20 164 20.9 37.0 0.00 0.00 0.00 80 1023.3
20240221152902 20 159 17.7 27.4 0.00 0.00 0.00 80 1023.2
20240221152802 20 173 17.7 27.4 0.00 0.00 0.00 80 1023.2
20240221152702 20 214 17.7 30.6 0.00 0.00 0.00 80 1023.2
20240221152602 20 190 16.1 30.6 0.00 0.00 0.00 80 1023.3
20240221152504 20 183 17.7 30.6 0.00 0.00 0.00 80 1023.2
20240221152402 20 183 16.1 30.6 0.00 0.00 0.00 80 1023.2
20240221152305 20 178 14.5 30.6 0.00 0.00 0.00 80 1023.2
20240221152203 20 186 16.1 30.6 0.00 0.00 0.00 80 1023.3
20240221152103 20 190 19.3 30.6 0.00 0.00 0.00 80 1023.2
20240221152002 20 200 20.9 30.6 0.00 0.00 0.00 80 1023.3
20240221151902 20 197 20.9 30.6 0.00 0.00 0.00 80 1023.3
20240221151803 20 188 19.3 30.6 0.00 0.00 0.00 81 1023.3
20240221151702 20 223 16.1 25.7 0.00 0.00 0.00 81 1023.3
20240221151602 20 190 12.9 25.7 0.00 0.00 0.00 81 1023.3
20240221151503 20 185 11.3 25.7 0.00 0.00 0.00 81 1023.3
20240221151402 20 185 16.1 25.7 0.00 0.00 0.00 81 1023.3
20240221151301 20 199 19.3 25.7 0.00 0.00 0.00 81 1023.2
20240221151202 20 185 19.3 25.7 0.00 0.00 0.00 81 1023.3
20240221151103 20 189 19.3 25.7 0.00 0.00 0.00 81 1023.3
20240221151002 20 180 17.7 25.7 0.00 0.00 0.00 82 1023.3
20240221150903 20 159 16.1 25.7 0.00 0.00 0.00 82 1023.3
20240221150802 20 197 14.5 25.7 0.00 0.00 0.00 82 1023.3
20240221150702 20 200 17.7 27.4 0.00 0.00 0.00 82 1023.3
20240221150602 20 203 16.1 27.4 0.00 0.00 0.00 82 1023.3
20240221150503 20 185 14.5 27.4 0.00 0.00 0.00 82 1023.3
20240221150403 20 166 14.5 27.4 0.00 0.00 0.00 82 1023.3
20240221150301 20 192 14.5 27.4 0.00 0.00 0.00 82 1023.3
20240221150203 20 189 16.1 27.4 0.00 0.00 0.00 82 1023.4
20240221150104 20 164 17.7 27.4 0.00 0.00 0.00 82 1023.4
20240221150002 20 182 17.7 27.4 0.00 0.00 0.00 82 1023.4
20240221145903 20 173 17.7 27.4 0.00 0.00 0.00 82 1023.4
20240221145803 20 176 19.3 27.4 0.00 0.00 0.00 83 1023.4
20240221145703 20 193 19.3 27.4 0.00 0.00 0.00 83 1023.3
20240221145604 20 182 19.3 27.4 0.00 0.00 0.00 83 1023.3
20240221145502 20 155 17.7 25.7 0.00 0.00 0.00 83 1023.3
20240221145403 20 188 14.5 24.1 0.00 0.00 0.00 84 1023.3
20240221145306 20 182 11.3 24.1 0.00 0.00 0.00 84 1023.4
20240221145202 20 172 12.9 24.1 0.00 0.00 0.00 84 1023.4
20240221145104 19 168 14.5 24.1 0.00 0.00 0.00 84 1023.3
20240221145002 19 176 12.9 24.1 0.00 0.00 0.00 84 1023.4
20240221144902 19 168 12.9 24.1 0.00 0.00 0.00 84 1023.4
20240221144802 19 193 14.5 24.1 0.00 0.00 0.00 84 1023.4
20240221144702 19 204 14.5 24.1 0.00 0.00 0.00 84 1023.3
20240221144602 19 195 14.5 24.1 0.00 0.00 0.00 84 1023.4
20240221144502 19 203 14.5 22.5 0.00 0.00 0.00 85 1023.4
20240221144403 19 200 11.3 27.4 0.00 0.00 0.00 85 1023.4
20240221144302 19 172 12.9 27.4 0.00 0.00 0.00 85 1023.4
20240221144202 19 171 16.1 27.4 0.00 0.00 0.00 85 1023.4
20240221144103 19 182 16.1 27.4 0.00 0.00 0.00 85 1023.4
20240221144004 19 195 14.5 27.4 0.00 0.00 0.00 85 1023.3
20240221143901 19 189 12.9 27.4 0.00 0.00 0.00 85 1023.4
20240221143802 19 165 11.3 27.4 0.00 0.00 0.00 85 1023.4
20240221143702 19 207 11.3 27.4 0.00 0.00 0.00 85 1023.4
20240221143603 19 165 16.1 27.4 0.00 0.00 0.00 85 1023.4
20240221143502 19 183 16.1 27.4 0.00 0.00 0.00 86 1023.3
20240221143403 19 188 12.9 25.7 0.00 0.00 0.00 86 1023.3
20240221143302 19 200 12.9 25.7 0.00 0.00 0.00 86 1023.4
20240221143201 19 192 12.9 25.7 0.00 0.00 0.00 86 1023.3
20240221143102 18 166 14.5 25.7 0.00 0.00 0.00 86 1023.3
20240221143005 19 175 16.1 25.7 0.00 0.00 0.00 86 1023.4
20240221142902 18 190 14.5 25.7 0.00 0.00 0.00 86 1023.3
20240221142802 18 178 14.5 25.7 0.00 0.00 0.00 86 1023.3
20240221142703 18 186 17.7 25.7 0.00 0.00 0.00 86 1023.3
20240221142602 18 188 16.1 25.7 0.00 0.00 0.00 87 1023.2
20240221142501 18 196 11.3 25.7 0.00 0.00 0.00 87 1023.2
20240221142403 18 190 12.9 24.1 0.00 0.00 0.00 87 1023.2
20240221142305 18 183 14.5 24.1 0.00 0.00 0.00 87 1023.2
20240221142202 18 186 14.5 24.1 0.00 0.00 0.00 87 1023.2
20240221142103 18 195 12.9 24.1 0.00 0.00 0.00 87 1023.2
20240221142004 18 189 14.5 24.1 0.00 0.00 0.00 87 1023.2
20240221141901 18 185 14.5 24.1 0.00 0.00 0.00 88 1023.2
20240221141802 18 197 12.9 24.1 0.00 0.00 0.00 88 1023.2
20240221141703 18 179 9.7 24.1 0.00 0.00 0.00 88 1023.2
20240221141603 18 190 12.9 24.1 0.00 0.00 0.00 88 1023.2
20240221141502 18 188 14.5 24.1 0.00 0.00 0.00 88 1023.1
20240221141402 18 188 11.3 20.9 0.00 0.00 0.00 88 1023.1
20240221141303 18 179 11.3 19.3 0.00 0.00 0.00 88 1023.0
20240221141203 18 175 14.5 19.3 0.00 0.00 0.00 88 1023.0
20240221141102 18 164 14.5 19.3 0.00 0.00 0.00 88 1023.0
20240221141004 18 192 12.9 19.3 0.00 0.00 0.00 89 1023.0
20240221140902 18 189 12.9 19.3 0.00 0.00 0.00 89 1023.1
20240221140802 18 199 12.9 17.7 0.00 0.00 0.00 89 1023.1
20240221140702 18 196 12.9 17.7 0.00 0.00 0.00 89 1023.1
20240221140602 18 179 11.3 17.7 0.00 0.00 0.00 89 1023.1
20240221140502 18 220 11.3 19.3 0.00 0.00 0.00 89 1023.1
20240221140402 18 200 9.7 19.3 0.00 0.00 0.00 89 1023.1
20240221140303 18 173 9.7 19.3 0.00 0.00 0.00 90 1023.0
20240221140202 18 182 11.3 19.3 0.00 0.00 0.00 90 1023.0
20240221140101 18 182 9.7 19.3 0.00 0.00 0.00 90 1023.0
20240221140003 18 185 9.7 19.3 0.00 0.00 0.00 90 1023.0
20240221135902 18 202 9.7 19.3 0.00 0.00 0.00 90 1023.0
20240221135802 18 189 9.7 19.3 0.00 0.00 0.00 90 1023.0
20240221135702 18 192 11.3 19.3 0.00 0.00 0.00 90 1022.9
20240221135603 17 172 11.3 19.3 0.00 0.00 0.00 90 1023.0
20240221135502 17 175 11.3 19.3 0.00 0.00 0.00 90 1023.0
20240221135402 17 189 11.3 19.3 0.00 0.00 0.00 90 1023.0
20240221135305 17 197 11.3 19.3 0.00 0.00 0.00 91 1023.0
20240221135202 17 179 11.3 19.3 0.00 0.00 0.00 91 1023.0
20240221135102 17 188 11.3 19.3 0.00 0.00 0.00 91 1023.0
20240221135002 17 196 11.3 19.3 0.00 0.00 0.00 91 1022.9
20240221134904 17 199 11.3 16.1 0.00 0.00 0.00 91 1022.9
20240221134802 17 175 9.7 16.1 0.00 0.00 0.00 91 1022.9
20240221134702 17 188 8.0 16.1 0.00 0.00 0.00 91 1022.9
20240221134603 17 197 9.7 16.1 0.00 0.00 0.00 91 1022.8
20240221134502 17 183 8.0 16.1 0.00 0.00 0.00 92 1022.9
20240221134401 17 158 9.7 16.1 0.00 0.00 0.00 92 1022.8
20240221134302 17 183 9.7 16.1 0.00 0.00 0.00 92 1022.8
20240221134202 17 178 8.0 16.1 0.00 0.00 0.00 92 1022.8
20240221134102 17 175 8.0 16.1 0.00 0.00 0.00 92 1022.9
20240221134004 17 171 9.7 16.1 0.00 0.00 0.00 92 1022.8
20240221133903 17 168 9.7 16.1 0.00 0.00 0.00 92 1022.8
20240221133803 17 197 9.7 16.1 0.00 0.00 0.00 92 1022.9
20240221133702 17 183 9.7 14.5 0.00 0.00 0.00 92 1022.8
20240221133603 17 192 8.0 14.5 0.00 0.00 0.00 92 1022.9
20240221133503 17 180 6.4 14.5 0.00 0.00 0.00 92 1022.9
20240221133402 17 182 8.0 14.5 0.00 0.00 0.00 92 1022.9
20240221133301 17 179 9.7 14.5 0.00 0.00 0.00 92 1022.9
20240221133206 17 168 9.7 14.5 0.00 0.00 0.00 92 1022.8
20240221133102 17 189 8.0 14.5 0.00 0.00 0.00 92 1022.9
20240221133002 17 164 8.0 14.5 0.00 0.00 0.00 92 1022.9
20240221132902 17 176 9.7 14.5 0.00 0.00 0.00 92 1022.9
20240221132801 17 175 9.7 14.5 0.00 0.00 0.00 93 1022.9
20240221132702 17 182 9.7 14.5 0.00 0.00 0.00 93 1022.9
20240221132602 17 192 9.7 14.5 0.00 0.00 0.00 93 1022.9
20240221132504 17 186 8.0 11.3 0.00 0.00 0.00 93 1022.9
20240221132402 17 172 9.7 11.3 0.00 0.00 0.00 93 1022.8
20240221132305 16 171 9.7 11.3 0.00 0.00 0.00 93 1023.0
20240221132203 16 180 8.0 11.3 0.00 0.00 0.00 93 1022.8
20240221132102 16 171 6.4 9.7 0.00 0.00 0.00 93 1022.9
20240221132004 16 171 8.0 11.3 0.00 0.00 0.00 93 1022.9
20240221131904 16 171 8.0 14.5 0.00 0.00 0.00 93 1022.8
20240221131802 16 171 8.0 16.1 0.00 0.00 0.00 93 1022.9
20240221131703 16 171 8.0 16.1 0.00 0.00 0.00 93 1022.8
20240221131600 16 186 8.0 16.1 0.00 0.00 0.00 93 1022.9
20240221131458 16 192 6.4 16.1 0.00 0.00 0.00 93 1022.9
20240221131356 16 183 6.4 16.1 0.00 0.00 0.00 93 1022.9
20240221131255 16 186 8.0 16.1 0.00 0.00 0.00 93 1022.9
20240221131153 16 190 8.0 16.1 0.00 0.00 0.00 93 1022.9
20240221131052 16 199 9.7 16.1 0.00 0.00 0.00 93 1022.9
20240221130950 16 169 8.0 16.1 0.00 0.00 0.00 93 1022.9
20240221130848 16 186 8.0 16.1 0.00 0.00 0.00 93 1022.9
20240221130747 16 183 6.4 11.3 0.00 0.00 0.00 93 1022.9
20240221130646 16 179 6.4 11.3 0.00 0.00 0.00 93 1022.8
20240221130544 16 178 6.4 11.3 0.00 0.00 0.00 93 1022.8
20240221130443 16 193 4.8 11.3 0.00 0.00 0.00 93 1022.9
20240221130341 16 152 6.4 11.3 0.00 0.00 0.00 93 1022.9
20240221130240 16 178 8.0 11.3 0.00 0.00 0.00 93 1022.9
20240221130138 16 188 6.4 11.3 0.00 0.00 0.00 93 1022.8
20240221130036 16 179 8.0 11.3 0.00 0.00 0.00 93 1022.8
20240221125935 16 172 6.4 11.3 0.00 0.00 0.00 93 1022.8
20240221125832 16 189 6.4 9.7 0.00 0.00 0.00 93 1022.8
20240221125731 16 173 8.0 9.7 0.00 0.00 0.00 93 1022.9
20240221125632 16 200 8.0 9.7 0.00 0.00 0.00 93 1022.9
20240221125531 16 179 6.4 9.7 0.00 0.00 0.00 93 1022.9
20240221125432 16 182 6.4 9.7 0.00 0.00 0.00 93 1022.9
20240221125331 16 176 6.4 11.3 0.00 0.00 0.00 93 1022.9
20240221125230 16 176 6.4 11.3 0.00 0.00 0.00 93 1022.9
20240221125130 16 188 6.4 11.3 0.00 0.00 0.00 93 1022.9
20240221125032 16 182 8.0 11.3 0.00 0.00 0.00 93 1022.8
20240221124931 16 186 8.0 11.3 0.00 0.00 0.00 93 1022.9
20240221124831 16 192 6.4 11.3 0.00 0.00 0.00 93 1022.9
20240221124732 16 192 6.4 11.3 0.00 0.00 0.00 93 1022.9
20240221124630 16 186 6.4 14.5 0.00 0.00 0.00 93 1022.9
20240221124531 16 195 8.0 14.5 0.00 0.00 0.00 93 1022.9
20240221124432 16 185 6.4 14.5 0.00 0.00 0.00 93 1022.9
20240221124328 16 196 6.4 14.5 0.00 0.00 0.00 93 1023.0
20240221124228 16 176 8.0 14.5 0.00 0.00 0.00 93 1023.0
20240221124123 16 188 8.0 14.5 0.00 0.00 0.00 93 1023.0
20240221124023 16 197 8.0 14.5 0.00 0.00 0.00 93 1022.9
20240221123922 16 172 6.4 14.5 0.00 0.00 0.00 93 1022.9
20240221123823 16 190 8.0 14.5 0.00 0.00 0.00 93 1023.0
20240221123722 16 182 9.7 14.5 0.00 0.00 0.00 93 1022.9
20240221123623 16 183 6.4 11.3 0.00 0.00 0.00 93 1022.8
20240221123522 16 176 6.4 11.3 0.00 0.00 0.00 93 1022.8
20240221123423 16 199 6.4 11.3 0.00 0.00 0.00 93 1022.8
20240221123322 16 200 6.4 14.5 0.00 0.00 0.00 93 1022.9
20240221123223 16 183 6.4 14.5 0.00 0.00 0.00 93 1022.8
20240221123123 16 195 6.4 14.5 0.00 0.00 0.00 93 1022.9
20240221123022 16 173 6.4 14.5 0.00 0.00 0.00 93 1022.9
20240221122924 16 190 6.4 14.5 0.00 0.00 0.00 93 1022.9
20240221122822 16 186 8.0 14.5 0.00 0.00 0.00 93 1022.9
20240221122722 16 182 6.4 14.5 0.00 0.00 0.00 93 1022.9
20240221122622 16 183 6.4 14.5 0.00 0.00 0.00 93 1022.9
20240221122523 16 193 6.4 14.5 0.00 0.00 0.00 93 1022.8
20240221122424 16 195 8.0 14.5 0.00 0.00 0.00 93 1022.8
20240221122322 16 186 8.0 14.5 0.00 0.00 0.00 93 1022.8
20240221122222 16 171 9.7 14.5 0.00 0.00 0.00 93 1022.8
20240221122122 16 171 6.4 9.7 0.00 0.00 0.00 93 1022.7
20240221122024 16 176 6.4 9.7 0.00 0.00 0.00 93 1022.8
20240221121923 16 183 6.4 9.7 0.00 0.00 0.00 93 1022.8
20240221121822 16 175 6.4 9.7 0.00 0.00 0.00 93 1022.8
20240221121723 16 179 6.4 9.7 0.00 0.00 0.00 94 1022.7
20240221121622 16 182 8.0 9.7 0.00 0.00 0.00 94 1022.8
20240221121522 16 195 6.4 9.7 0.00 0.00 0.00 94 1022.8
20240221121422 16 176 6.4 9.7 0.00 0.00 0.00 94 1022.8
20240221121324 16 202 8.0 11.3 0.00 0.00 0.00 94 1022.8
20240221121223 16 195 6.4 11.3 0.00 0.00 0.00 94 1022.8
20240221121123 16 195 6.4 11.3 0.00 0.00 0.00 94 1022.8
20240221121022 16 195 6.4 11.3 0.00 0.00 0.00 94 1022.8
20240221120923 16 195 6.4 11.3 0.00 0.00 0.00 94 1022.7
20240221120822 16 195 6.4 11.3 0.00 0.00 0.00 94 1022.7
20240221120724 16 196 6.4 11.3 0.00 0.00 0.00 94 1022.7
20240221120622 16 197 6.4 11.3 0.00 0.00 0.00 94 1022.7
20240221120521 16 197 8.0 11.3 0.00 0.00 0.00 94 1022.7
20240221120423 16 168 9.7 11.3 0.00 0.00 0.00 94 1022.7
20240221120324 16 192 8.0 14.5 0.00 0.00 0.00 94 1022.6
20240221120222 16 195 8.0 14.5 0.00 0.00 0.00 94 1022.7
20240221120122 16 193 6.4 14.5 0.00 0.00 0.00 94 1022.7
20240221120023 16 193 6.4 14.5 0.00 0.00 0.00 94 1022.7
20240221115923 16 192 6.4 14.5 0.00 0.00 0.00 94 1022.7
20240221115821 16 200 8.0 14.5 0.00 0.00 0.00 94 1022.7
20240221115722 16 172 8.0 14.5 0.00 0.00 0.00 94 1022.7
20240221115622 16 185 8.0 14.5 0.00 0.00 0.00 94 1022.7
20240221115521 16 186 9.7 14.5 0.00 0.00 0.00 94 1022.8
20240221115421 16 189 9.7 14.5 0.00 0.00 0.00 94 1022.7
20240221115322 16 188 8.0 14.5 0.00 0.00 0.00 94 1022.7
20240221115223 16 193 8.0 14.5 0.00 0.00 0.00 94 1022.7
20240221115122 16 182 8.0 14.5 0.00 0.00 0.00 94 1022.7
20240221115021 16 197 6.4 14.5 0.00 0.00 0.00 94 1022.8
20240221114923 16 188 8.0 14.5 0.00 0.00 0.00 94 1022.7
20240221114822 16 186 9.7 14.5 0.00 0.00 0.00 94 1022.6
20240221114721 16 203 8.0 14.5 0.00 0.00 0.00 94 1022.6
20240221114622 16 176 8.0 14.5 0.00 0.00 0.00 94 1022.6
20240221114522 16 188 8.0 14.5 0.00 0.00 0.00 94 1022.6
20240221114423 16 195 8.0 14.5 0.00 0.00 0.00 94 1022.6
20240221114321 16 193 8.0 16.1 0.00 0.00 0.00 94 1022.6
20240221114221 16 180 9.7 16.1 0.00 0.00 0.00 94 1022.6
20240221114121 16 197 9.7 16.1 0.00 0.00 0.00 94 1022.6
20240221114022 16 195 9.7 16.1 0.00 0.00 0.00 94 1022.5
20240221113922 16 186 9.7 16.1 0.00 0.00 0.00 94 1022.5
20240221113822 16 197 9.7 16.1 0.00 0.00 0.00 94 1022.6
20240221113721 16 190 8.0 16.1 0.00 0.00 0.00 94 1022.5
20240221113621 16 216 9.7 16.1 0.00 0.00 0.00 94 1022.6
20240221113522 16 195 11.3 16.1 0.00 0.00 0.00 94 1022.5
20240221113421 16 206 9.7 16.1 0.00 0.00 0.00 94 1022.5
20240221113321 16 173 9.7 16.1 0.00 0.00 0.00 94 1022.5
20240221113223 16 179 11.3 16.1 0.00 0.00 0.00 94 1022.5
20240221113122 16 196 9.7 16.1 0.00 0.00 0.00 94 1022.5
20240221113021 16 179 9.7 16.1 0.00 0.00 0.00 94 1022.5
20240221112921 16 182 8.0 14.5 0.00 0.00 0.00 94 1022.5
20240221112823 16 183 8.0 14.5 0.00 0.00 0.00 94 1022.5
20240221112721 16 192 8.0 14.5 0.00 0.00 0.00 94 1022.6
20240221112621 16 196 8.0 14.5 0.00 0.00 0.00 94 1022.5
20240221112522 16 171 8.0 14.5 0.00 0.00 0.00 94 1022.4
20240221112422 16 202 8.0 14.5 0.00 0.00 0.00 94 1022.5
20240221112322 16 189 8.0 14.5 0.00 0.00 0.00 94 1022.5
20240221112221 16 189 8.0 14.5 0.00 0.00 0.00 94 1022.6
20240221112123 16 199 8.0 14.5 0.00 0.00 0.00 94 1022.5
20240221112023 16 190 8.0 14.5 0.00 0.00 0.00 94 1022.5
20240221111920 16 182 8.0 14.5 0.00 0.00 0.00 94 1022.5
20240221111823 16 193 8.0 14.5 0.00 0.00 0.00 94 1022.5
20240221111721 16 197 9.7 14.5 0.00 0.00 0.00 94 1022.5
20240221111622 16 179 8.0 14.5 0.00 0.00 0.00 94 1022.5
20240221111522 16 193 8.0 11.3 0.00 0.00 0.00 94 1022.5
20240221111421 16 178 6.4 11.3 0.00 0.00 0.00 94 1022.4
20240221111321 16 192 6.4 11.3 0.00 0.00 0.00 94 1022.5
20240221111220 16 190 6.4 11.3 0.00 0.00 0.00 94 1022.5
20240221111122 16 183 8.0 11.3 0.00 0.00 0.00 94 1022.5
20240221111021 16 192 8.0 11.3 0.00 0.00 0.00 94 1022.5
20240221110922 16 195 8.0 11.3 0.00 0.00 0.00 94 1022.4
20240221110821 16 189 8.0 11.3 0.00 0.00 0.00 94 1022.4
20240221110722 16 186 8.0 11.3 0.00 0.00 0.00 94 1022.5
20240221110620 16 200 8.0 11.3 0.00 0.00 0.00 94 1022.4
20240221110520 16 193 8.0 11.3 0.00 0.00 0.00 94 1022.4
20240221110421 16 165 8.0 11.3 0.00 0.00 0.00 94 1022.4
20240221110321 16 185 6.4 11.3 0.00 0.00 0.00 94 1022.4
20240221110221 16 197 6.4 11.3 0.00 0.00 0.00 94 1022.4
20240221110120 16 197 8.0 11.3 0.00 0.00 0.00 94 1022.4
20240221110021 16 188 8.0 11.3 0.00 0.00 0.00 94 1022.4
20240221105922 16 186 8.0 14.5 0.00 0.00 0.00 94 1022.4
20240221105820 16 204 8.0 14.5 0.00 0.00 0.00 94 1022.4
20240221105721 16 183 8.0 14.5 0.00 0.00 0.00 94 1022.4
20240221105620 16 182 8.0 16.1 0.00 0.00 0.00 94 1022.4
20240221105520 16 196 8.0 16.1 0.00 0.00 0.00 94 1022.3
20240221105420 16 190 8.0 16.1 0.00 0.00 0.00 94 1022.4
20240221105320 16 172 8.0 16.1 0.00 0.00 0.00 94 1022.3
20240221105220 16 196 9.7 16.1 0.00 0.00 0.00 94 1022.3
20240221105120 16 186 9.7 16.1 0.00 0.00 0.00 94 1022.3
20240221105021 16 202 9.7 16.1 0.00 0.00 0.00 94 1022.2
20240221104919 16 188 9.7 16.1 0.00 0.00 0.00 94 1022.3
20240221104821 16 190 9.7 16.1 0.00 0.00 0.00 94 1022.3
20240221104720 16 189 11.3 16.1 0.00 0.00 0.00 94 1022.2
20240221104620 16 176 9.7 16.1 0.00 0.00 0.00 94 1022.2
20240221104520 16 190 8.0 16.1 0.00 0.00 0.00 94 1022.2
20240221104420 16 185 8.0 16.1 0.00 0.00 0.00 94 1022.2
20240221104322 16 190 9.7 16.1 0.00 0.00 0.00 94 1022.2
20240221104220 16 195 8.0 16.1 0.00 0.00 0.00 94 1022.1
20240221104120 16 178 8.0 16.1 0.00 0.00 0.00 94 1022.1
20240221104020 16 189 9.7 16.1 0.00 0.00 0.00 94 1022.1
20240221103921 16 195 9.7 16.1 0.00 0.00 0.00 94 1022.1
20240221103819 16 192 9.7 16.1 0.00 0.00 0.00 94 1022.2
20240221103719 16 183 8.0 16.1 0.00 0.00 0.00 94 1022.1
20240221103620 16 193 9.7 16.1 0.00 0.00 0.00 94 1022.1
20240221103521 16 190 8.0 17.7 0.00 0.00 0.00 94 1022.1
20240221103419 16 186 8.0 17.7 0.00 0.00 0.00 94 1022.1
20240221103320 16 193 9.7 17.7 0.00 0.00 0.00 94 1022.1
20240221103220 16 195 9.7 17.7 0.00 0.00 0.00 94 1022.1
20240221103119 16 195 9.7 17.7 0.00 0.00 0.00 94 1022.1
20240221103020 16 180 9.7 17.7 0.00 0.00 0.00 94 1022.1
20240221102921 16 180 9.7 17.7 0.00 0.00 0.00 94 1022.0